2016 Cux-Wetter.de -Die Nutzung der Wetterdaten nur mit ausdrcklicher Genehmigung
Wetterdaten: Freitag, 24.02.2017
Datum Zeit Temp. A. Feuchte A. Luftdruck Regen Wind Richtung Richtung Sonnenschein Solar Taupunkt Windchill Windben
24.02.2017 00:00 5,2 C 97 % 981,2 hPa 0,0 l/m 13,9 km/h (3 Bft) SW 223 0 min 0 W/m 4,8 C -0,1 C 20,9 km/h (4 Bft)
24.02.2017 00:03 5,2 C 97 % 981,2 hPa 0,0 l/m 11,1 km/h (2 Bft) W 265 0 min 0 W/m 4,8 C 1,6 C 19,3 km/h (3 Bft)
24.02.2017 00:06 5,2 C 97 % 981,2 hPa 0,0 l/m 15,0 km/h (3 Bft) W-SW 244 0 min 0 W/m 4,8 C -0,7 C 22,5 km/h (4 Bft)
24.02.2017 00:09 5,2 C 97 % 981,3 hPa 0,0 l/m 12,2 km/h (2 Bft) W 262 0 min 0 W/m 4,8 C 0,9 C 20,9 km/h (4 Bft)
24.02.2017 00:12 5,2 C 97 % 981,4 hPa 0,0 l/m 13,0 km/h (3 Bft) N-NW 338 0 min 0 W/m 4,8 C 0,4 C 27,4 km/h (5 Bft)
24.02.2017 00:15 5,1 C 97 % 981,4 hPa 0,0 l/m 14,4 km/h (3 Bft) NW 310 0 min 0 W/m 4,7 C -0,5 C 24,1 km/h (4 Bft)
24.02.2017 00:18 4,9 C 96 % 981,6 hPa 0,0 l/m 16,0 km/h (3 Bft) N-NW 336 0 min 0 W/m 4,3 C -1,5 C 27,4 km/h (5 Bft)
24.02.2017 00:21 4,7 C 96 % 981,8 hPa 0,0 l/m 19,0 km/h (3 Bft) N-NW 333 0 min 0 W/m 4,1 C -3,1 C 32,2 km/h (5 Bft)
24.02.2017 00:24 4,4 C 96 % 982,0 hPa 0,0 l/m 23,0 km/h (4 Bft) N-NW 342 0 min 0 W/m 3,8 C -5,1 C 40,2 km/h (6 Bft)
24.02.2017 00:27 4,1 C 96 % 982,0 hPa 0,0 l/m 23,6 km/h (4 Bft) N-NO 13 0 min 0 W/m 3,5 C -5,7 C 37,0 km/h (5 Bft)
24.02.2017 00:30 3,9 C 96 % 982,3 hPa 0,0 l/m 25,4 km/h (4 Bft) N-NW 332 0 min 0 W/m 3,3 C -6,6 C 45,1 km/h (6 Bft)
24.02.2017 00:33 3,8 C 96 % 982,3 hPa 0,0 l/m 21,5 km/h (4 Bft) N 355 0 min 0 W/m 3,2 C -5,3 C 40,2 km/h (6 Bft)
24.02.2017 00:36 3,7 C 96 % 982,6 hPa 0,0 l/m 27,3 km/h (5 Bft) N-NO 19 0 min 0 W/m 3,1 C -7,4 C 41,8 km/h (6 Bft)
24.02.2017 00:39 3,5 C 96 % 982,7 hPa 0,0 l/m 25,3 km/h (4 Bft) N-NW 348 0 min 0 W/m 2,9 C -7,1 C 41,8 km/h (6 Bft)
24.02.2017 00:42 3,3 C 96 % 982,9 hPa 0,0 l/m 25,6 km/h (4 Bft) N-NW 332 0 min 0 W/m 2,7 C -7,4 C 41,8 km/h (6 Bft)
24.02.2017 00:45 3,2 C 96 % 983,0 hPa 0,0 l/m 23,5 km/h (4 Bft) NW 321 0 min 0 W/m 2,6 C -6,9 C 48,3 km/h (6 Bft)
24.02.2017 00:48 3,1 C 96 % 983,3 hPa 0,0 l/m 26,9 km/h (4 Bft) NW 308 0 min 0 W/m 2,5 C -8,1 C 40,2 km/h (6 Bft)
24.02.2017 00:51 3,1 C 96 % 983,5 hPa 0,0 l/m 29,1 km/h (5 Bft) N 355 0 min 0 W/m 2,5 C -8,8 C 51,5 km/h (7 Bft)
24.02.2017 00:54 3,0 C 96 % 983,6 hPa 0,0 l/m 26,5 km/h (4 Bft) NW 324 0 min 0 W/m 2,4 C -8,1 C 41,8 km/h (6 Bft)
24.02.2017 00:57 2,9 C 96 % 983,8 hPa 0,0 l/m 30,8 km/h (5 Bft) NW 318 0 min 0 W/m 2,3 C -9,5 C 45,1 km/h (6 Bft)
24.02.2017 01:00 2,9 C 96 % 983,9 hPa 0,0 l/m 28,3 km/h (5 Bft) N 360 0 min 0 W/m 2,3 C -8,8 C 45,1 km/h (6 Bft)
24.02.2017 01:03 2,9 C 96 % 984,1 hPa 0,0 l/m 27,5 km/h (5 Bft) N-NW 344 0 min 0 W/m 2,3 C -8,6 C 46,7 km/h (6 Bft)
24.02.2017 01:06 2,9 C 96 % 984,3 hPa 0,0 l/m 24,3 km/h (4 Bft) N 360 0 min 0 W/m 2,3 C -7,5 C 41,8 km/h (6 Bft)
24.02.2017 01:09 2,9 C 96 % 984,5 hPa 0,0 l/m 27,9 km/h (5 Bft) N 360 0 min 0 W/m 2,3 C -8,7 C 43,5 km/h (6 Bft)
24.02.2017 01:12 2,9 C 96 % 984,7 hPa 0,0 l/m 27,7 km/h (5 Bft) N-NW 328 0 min 0 W/m 2,3 C -8,7 C 49,9 km/h (7 Bft)
24.02.2017 01:15 2,9 C 96 % 984,8 hPa 0,0 l/m 29,1 km/h (5 Bft) N 360 0 min 0 W/m 2,3 C -9,1 C 49,9 km/h (7 Bft)
24.02.2017 01:18 2,8 C 96 % 985,0 hPa 0,0 l/m 29,9 km/h (5 Bft) N-NW 339 0 min 0 W/m 2,2 C -9,4 C 51,5 km/h (7 Bft)
24.02.2017 01:21 2,8 C 95 % 985,1 hPa 0,0 l/m 30,4 km/h (5 Bft) N 355 0 min 0 W/m 2,1 C -9,6 C 49,9 km/h (7 Bft)
24.02.2017 01:24 2,8 C 95 % 985,2 hPa 0,0 l/m 28,7 km/h (5 Bft) N-NO 19 0 min 0 W/m 2,1 C -9,1 C 48,3 km/h (6 Bft)
24.02.2017 01:27 2,8 C 95 % 985,4 hPa 0,0 l/m 32,9 km/h (5 Bft) NW 318 0 min 0 W/m 2,1 C -10,2 C 49,9 km/h (7 Bft)
24.02.2017 01:30 2,8 C 95 % 985,8 hPa 0,0 l/m 27,9 km/h (5 Bft) N 351 0 min 0 W/m 2,1 C -8,9 C 41,8 km/h (6 Bft)
24.02.2017 01:33 2,8 C 95 % 985,9 hPa 0,0 l/m 27,4 km/h (5 Bft) NW 325 0 min 0 W/m 2,1 C -8,7 C 43,5 km/h (6 Bft)
24.02.2017 01:36 2,8 C 95 % 986,2 hPa 0,0 l/m 29,8 km/h (5 Bft) N 355 0 min 0 W/m 2,1 C -9,4 C 49,9 km/h (7 Bft)
24.02.2017 01:39 2,9 C 95 % 986,4 hPa 0,0 l/m 28,8 km/h (5 Bft) N-NW 338 0 min 0 W/m 2,2 C -9,0 C 49,9 km/h (7 Bft)
24.02.2017 01:42 2,9 C 95 % 986,7 hPa 0,0 l/m 25,5 km/h (4 Bft) N-NW 335 0 min 0 W/m 2,2 C -8,0 C 38,6 km/h (6 Bft)
24.02.2017 01:45 3,0 C 94 % 986,8 hPa 0,2 l/m 30,4 km/h (5 Bft) N 5 0 min 0 W/m 2,1 C -9,3 C 53,1 km/h (7 Bft)
24.02.2017 01:48 3,0 C 94 % 987,1 hPa 0,0 l/m 24,9 km/h (4 Bft) N-NW 331 0 min 0 W/m 2,1 C -7,6 C 41,8 km/h (6 Bft)
24.02.2017 01:51 3,1 C 94 % 987,3 hPa 0,0 l/m 25,4 km/h (4 Bft) N-NW 338 0 min 0 W/m 2,2 C -7,7 C 45,1 km/h (6 Bft)
24.02.2017 01:54 3,1 C 94 % 987,3 hPa 0,0 l/m 26,4 km/h (4 Bft) N-NW 333 0 min 0 W/m 2,2 C -8,0 C 43,5 km/h (6 Bft)
24.02.2017 01:57 3,1 C 94 % 987,6 hPa 0,0 l/m 27,3 km/h (5 Bft) N-NO 14 0 min 0 W/m 2,2 C -8,3 C 45,1 km/h (6 Bft)
24.02.2017 02:00 3,2 C 93 % 987,7 hPa 0,0 l/m 25,1 km/h (4 Bft) NW 326 0 min 0 W/m 2,2 C -7,4 C 45,1 km/h (6 Bft)
24.02.2017 02:03 3,2 C 93 % 988,0 hPa 0,0 l/m 25,0 km/h (4 Bft) N 355 0 min 0 W/m 2,2 C -7,4 C 49,9 km/h (7 Bft)
24.02.2017 02:06 3,2 C 93 % 988,0 hPa 0,0 l/m 26,0 km/h (4 Bft) N-NW 341 0 min 0 W/m 2,2 C -7,7 C 41,8 km/h (6 Bft)
24.02.2017 02:09 3,3 C 93 % 988,2 hPa 0,0 l/m 24,2 km/h (4 Bft) N 360 0 min 0 W/m 2,3 C -7,0 C 43,5 km/h (6 Bft)
24.02.2017 02:12 3,3 C 93 % 988,3 hPa 0,0 l/m 23,1 km/h (4 Bft) NW 316 0 min 0 W/m 2,3 C -6,6 C 35,4 km/h (5 Bft)
24.02.2017 02:15 3,3 C 93 % 988,6 hPa 0,0 l/m 25,8 km/h (4 Bft) NW 309 0 min 0 W/m 2,3 C -7,5 C 46,7 km/h (6 Bft)
24.02.2017 02:18 3,3 C 93 % 988,7 hPa 0,0 l/m 24,1 km/h (4 Bft) N-NO 20 0 min 0 W/m 2,3 C -6,9 C 43,5 km/h (6 Bft)
24.02.2017 02:21 3,3 C 93 % 988,9 hPa 0,0 l/m 25,2 km/h (4 Bft) N-NW 336 0 min 0 W/m 2,3 C -7,3 C 45,1 km/h (6 Bft)
24.02.2017 02:24 3,3 C 93 % 988,9 hPa 0,0 l/m 30,9 km/h (5 Bft) NW 313 0 min 0 W/m 2,3 C -9,0 C 46,7 km/h (6 Bft)
24.02.2017 02:27 3,3 C 92 % 989,2 hPa 0,0 l/m 25,4 km/h (4 Bft) NW 317 0 min 0 W/m 2,1 C -7,4 C 41,8 km/h (6 Bft)
24.02.2017 02:30 3,3 C 92 % 989,4 hPa 0,0 l/m 25,5 km/h (4 Bft) N-NW 333 0 min 0 W/m 2,1 C -7,4 C 41,8 km/h (6 Bft)
24.02.2017 02:33 3,3 C 92 % 989,5 hPa 0,0 l/m 27,6 km/h (5 Bft) N-NW 345 0 min 0 W/m 2,1 C -8,1 C 48,3 km/h (6 Bft)
24.02.2017 02:36 3,3 C 92 % 989,6 hPa 0,0 l/m 30,0 km/h (5 Bft) N-NW 328 0 min 0 W/m 2,1 C -8,8 C 48,3 km/h (6 Bft)
24.02.2017 02:39 3,3 C 92 % 989,8 hPa 0,0 l/m 26,3 km/h (4 Bft) NW 309 0 min 0 W/m 2,1 C -7,7 C 45,1 km/h (6 Bft)
24.02.2017 02:42 3,3 C 92 % 989,9 hPa 0,0 l/m 19,3 km/h (3 Bft) N-NW 346 0 min 0 W/m 2,1 C -5,1 C 32,2 km/h (5 Bft)
24.02.2017 02:45 3,3 C 92 % 990,0 hPa 0,0 l/m 23,2 km/h (4 Bft) NW 313 0 min 0 W/m 2,1 C -6,6 C 37,0 km/h (5 Bft)
24.02.2017 02:48 3,4 C 92 % 990,3 hPa 0,0 l/m 28,8 km/h (5 Bft) NW 323 0 min 0 W/m 2,2 C -8,3 C 45,1 km/h (6 Bft)
24.02.2017 02:51 3,3 C 91 % 990,5 hPa 0,0 l/m 27,4 km/h (5 Bft) W-NW 294 0 min 0 W/m 2,0 C -8,0 C 46,7 km/h (6 Bft)
24.02.2017 02:54 3,3 C 92 % 990,5 hPa 0,0 l/m 21,8 km/h (4 Bft) NW 309 0 min 0 W/m 2,1 C -6,1 C 37,0 km/h (5 Bft)
24.02.2017 02:57 3,3 C 92 % 990,7 hPa 0,0 l/m 23,7 km/h (4 Bft) N-NW 338 0 min 0 W/m 2,1 C -6,8 C 41,8 km/h (6 Bft)
24.02.2017 03:00 3,3 C 92 % 990,9 hPa 0,0 l/m 27,3 km/h (5 Bft) N-NW 331 0 min 0 W/m 2,1 C -8,0 C 43,5 km/h (6 Bft)
24.02.2017 03:03 3,3 C 91 % 991,0 hPa 0,0 l/m 24,8 km/h (4 Bft) N-NW 348 0 min 0 W/m 2,0 C -7,2 C 40,2 km/h (6 Bft)
24.02.2017 03:06 3,3 C 92 % 991,1 hPa 0,0 l/m 22,7 km/h (4 Bft) NW 304 0 min 0 W/m 2,1 C -6,4 C 33,8 km/h (5 Bft)
24.02.2017 03:09 3,2 C 92 % 991,4 hPa 0,0 l/m 21,8 km/h (4 Bft) NW 313 0 min 0 W/m 2,0 C -6,2 C 32,2 km/h (5 Bft)
24.02.2017 03:12 3,2 C 92 % 991,4 hPa 0,0 l/m 24,8 km/h (4 Bft) NW 321 0 min 0 W/m 2,0 C -7,3 C 37,0 km/h (5 Bft)
24.02.2017 03:15 3,1 C 92 % 991,5 hPa 0,0 l/m 25,9 km/h (4 Bft) N 5 0 min 0 W/m 1,9 C -7,8 C 45,1 km/h (6 Bft)
24.02.2017 03:18 3,1 C 92 % 991,6 hPa 0,0 l/m 23,9 km/h (4 Bft) N-NW 347 0 min 0 W/m 1,9 C -7,1 C 35,4 km/h (5 Bft)
24.02.2017 03:21 3,1 C 92 % 991,7 hPa 0,0 l/m 20,7 km/h (4 Bft) N 5 0 min 0 W/m 1,9 C -5,9 C 33,8 km/h (5 Bft)
24.02.2017 03:24 3,1 C 92 % 991,8 hPa 0,0 l/m 23,7 km/h (4 Bft) NW 306 0 min 0 W/m 1,9 C -7,1 C 35,4 km/h (5 Bft)
24.02.2017 03:27 3,1 C 92 % 992,0 hPa 0,0 l/m 22,9 km/h (4 Bft) N 360 0 min 0 W/m 1,9 C -6,8 C 37,0 km/h (5 Bft)
24.02.2017 03:30 3,1 C 93 % 992,1 hPa 0,0 l/m 22,7 km/h (4 Bft) N-NW 328 0 min 0 W/m 2,1 C -6,7 C 38,6 km/h (6 Bft)
24.02.2017 03:33 3,1 C 93 % 992,1 hPa 0,0 l/m 24,1 km/h (4 Bft) NW 311 0 min 0 W/m 2,1 C -7,2 C 33,8 km/h (5 Bft)
24.02.2017 03:36 3,2 C 93 % 992,3 hPa 0,0 l/m 22,0 km/h (4 Bft) NW 321 0 min 0 W/m 2,2 C -6,3 C 33,8 km/h (5 Bft)
24.02.2017 03:39 3,2 C 93 % 992,4 hPa 0,0 l/m 25,7 km/h (4 Bft) W-NW 292 0 min 0 W/m 2,2 C -7,6 C 40,2 km/h (6 Bft)
24.02.2017 03:42 3,2 C 92 % 992,5 hPa 0,0 l/m 24,8 km/h (4 Bft) NW 312 0 min 0 W/m 2,0 C -7,3 C 38,6 km/h (6 Bft)
24.02.2017 03:45 3,2 C 92 % 992,7 hPa 0,0 l/m 25,4 km/h (4 Bft) N-NW 348 0 min 0 W/m 2,0 C -7,5 C 40,2 km/h (6 Bft)
24.02.2017 03:48 3,2 C 92 % 992,8 hPa 0,0 l/m 22,6 km/h (4 Bft) N-NW 338 0 min 0 W/m 2,0 C -6,5 C 38,6 km/h (6 Bft)
24.02.2017 03:51 3,3 C 92 % 992,9 hPa 0,0 l/m 24,0 km/h (4 Bft) N-NO 15 0 min 0 W/m 2,1 C -6,9 C 45,1 km/h (6 Bft)
24.02.2017 03:54 3,3 C 92 % 993,1 hPa 0,0 l/m 21,6 km/h (4 Bft) NW 312 0 min 0 W/m 2,1 C -6,0 C 32,2 km/h (5 Bft)
24.02.2017 03:57 3,3 C 91 % 993,2 hPa 0,0 l/m 21,1 km/h (4 Bft) NW 307 0 min 0 W/m 2,0 C -5,8 C 33,8 km/h (5 Bft)
24.02.2017 04:00 3,3 C 91 % 993,2 hPa 0,0 l/m 24,5 km/h (4 Bft) N-NW 327 0 min 0 W/m 2,0 C -7,1 C 37,0 km/h (5 Bft)
24.02.2017 04:03 3,3 C 91 % 993,3 hPa 0,0 l/m 23,9 km/h (4 Bft) NW 315 0 min 0 W/m 2,0 C -6,9 C 33,8 km/h (5 Bft)
24.02.2017 04:06 3,4 C 91 % 993,4 hPa 0,0 l/m 20,3 km/h (4 Bft) N-NW 336 0 min 0 W/m 2,1 C -5,4 C 29,0 km/h (5 Bft)
24.02.2017 04:09 3,4 C 91 % 993,5 hPa 0,0 l/m 22,4 km/h (4 Bft) N-NW 330 0 min 0 W/m 2,1 C -6,2 C 32,2 km/h (5 Bft)
24.02.2017 04:12 3,4 C 91 % 993,7 hPa 0,0 l/m 16,3 km/h (3 Bft) N-NW 340 0 min 0 W/m 2,1 C -3,5 C 25,7 km/h (4 Bft)
24.02.2017 04:15 3,4 C 91 % 993,8 hPa 0,0 l/m 16,5 km/h (3 Bft) N 355 0 min 0 W/m 2,1 C -3,6 C 25,7 km/h (4 Bft)
24.02.2017 04:18 3,5 C 91 % 993,9 hPa 0,0 l/m 11,5 km/h (2 Bft) N-NW 340 0 min 0 W/m 2,2 C -0,6 C 25,7 km/h (4 Bft)
24.02.2017 04:21 3,6 C 91 % 994,0 hPa 0,0 l/m 18,0 km/h (3 Bft) NW 309 0 min 0 W/m 2,3 C -4,1 C 32,2 km/h (5 Bft)
24.02.2017 04:24 3,6 C 91 % 994,1 hPa 0,0 l/m 15,7 km/h (3 Bft) NW 317 0 min 0 W/m 2,3 C -3,0 C 24,1 km/h (4 Bft)
24.02.2017 04:27 3,7 C 91 % 994,2 hPa 0,0 l/m 17,8 km/h (3 Bft) NW 309 0 min 0 W/m 2,4 C -3,9 C 27,4 km/h (5 Bft)
24.02.2017 04:30 3,7 C 91 % 994,2 hPa 0,0 l/m 14,8 km/h (3 Bft) N-NW 347 0 min 0 W/m 2,4 C -2,4 C 27,4 km/h (5 Bft)
24.02.2017 04:33 3,7 C 91 % 994,3 hPa 0,0 l/m 13,9 km/h (3 Bft) W-NW 302 0 min 0 W/m 2,4 C -1,9 C 27,4 km/h (5 Bft)
24.02.2017 04:36 3,8 C 91 % 994,3 hPa 0,0 l/m 10,4 km/h (2 Bft) W 281 0 min 0 W/m 2,5 C 0,5 C 22,5 km/h (4 Bft)
24.02.2017 04:39 3,8 C 91 % 994,5 hPa 0,0 l/m 11,9 km/h (2 Bft) W-NW 294 0 min 0 W/m 2,5 C -0,6 C 22,5 km/h (4 Bft)
24.02.2017 04:42 3,8 C 91 % 994,5 hPa 0,0 l/m 9,6 km/h (2 Bft) NW 315 0 min 0 W/m 2,5 C 1,0 C 19,3 km/h (3 Bft)
24.02.2017 04:45 3,8 C 92 % 994,6 hPa 0,0 l/m 6,3 km/h (2 Bft) SW 234 0 min 0 W/m 2,6 C 3,8 C 19,3 km/h (3 Bft)
24.02.2017 04:48 3,8 C 92 % 994,7 hPa 0,0 l/m 7,0 km/h (2 Bft) W-NW 301 0 min 0 W/m 2,6 C 3,3 C 19,3 km/h (3 Bft)
24.02.2017 04:51 3,8 C 92 % 994,8 hPa 0,0 l/m 6,7 km/h (2 Bft) W 280 0 min 0 W/m 2,6 C 3,5 C 17,7 km/h (3 Bft)
24.02.2017 04:54 3,8 C 92 % 994,9 hPa 0,0 l/m 7,4 km/h (2 Bft) W 270 0 min 0 W/m 2,6 C 2,9 C 14,5 km/h (3 Bft)
24.02.2017 04:57 3,8 C 92 % 995,0 hPa 0,0 l/m 10,0 km/h (2 Bft) N-NW 336 0 min 0 W/m 2,6 C 0,7 C 17,7 km/h (3 Bft)
24.02.2017 05:00 3,8 C 92 % 995,0 hPa 0,0 l/m 10,4 km/h (2 Bft) W-NW 296 0 min 0 W/m 2,6 C 0,5 C 17,7 km/h (3 Bft)
24.02.2017 05:03 3,8 C 92 % 995,1 hPa 0,0 l/m 8,5 km/h (2 Bft) W 265 0 min 0 W/m 2,6 C 1,9 C 19,3 km/h (3 Bft)
24.02.2017 05:06 3,8 C 92 % 995,3 hPa 0,0 l/m 12,7 km/h (3 Bft) W-NW 296 0 min 0 W/m 2,6 C -1,1 C 22,5 km/h (4 Bft)
24.02.2017 05:09 3,8 C 92 % 995,3 hPa 0,0 l/m 11,3 km/h (2 Bft) W 279 0 min 0 W/m 2,6 C -0,2 C 22,5 km/h (4 Bft)
24.02.2017 05:12 3,8 C 92 % 995,5 hPa 0,0 l/m 9,4 km/h (2 Bft) W-NW 297 0 min 0 W/m 2,6 C 1,2 C 19,3 km/h (3 Bft)
24.02.2017 05:15 3,8 C 92 % 995,5 hPa 0,0 l/m 13,2 km/h (3 Bft) W-NW 298 0 min 0 W/m 2,6 C -1,4 C 22,5 km/h (4 Bft)
24.02.2017 05:18 3,8 C 92 % 995,7 hPa 0,0 l/m 7,7 km/h (2 Bft) NW 313 0 min 0 W/m 2,6 C 2,6 C 16,1 km/h (3 Bft)
24.02.2017 05:21 3,8 C 92 % 995,8 hPa 0,0 l/m 10,9 km/h (2 Bft) N 360 0 min 0 W/m 2,6 C 0,1 C 20,9 km/h (4 Bft)
24.02.2017 05:24 3,7 C 91 % 995,9 hPa 0,0 l/m 10,5 km/h (2 Bft) W-NW 289 0 min 0 W/m 2,4 C 0,3 C 19,3 km/h (3 Bft)
24.02.2017 05:27 3,7 C 91 % 996,0 hPa 0,0 l/m 7,0 km/h (2 Bft) SW 225 0 min 0 W/m 2,4 C 3,1 C 19,3 km/h (3 Bft)
24.02.2017 05:30 3,7 C 91 % 996,1 hPa 0,0 l/m 11,9 km/h (2 Bft) W-SW 248 0 min 0 W/m 2,4 C -0,7 C 22,5 km/h (4 Bft)
24.02.2017 05:33 3,8 C 91 % 996,2 hPa 0,0 l/m 12,1 km/h (2 Bft) W-NW 291 0 min 0 W/m 2,5 C -0,7 C 22,5 km/h (4 Bft)
24.02.2017 05:36 3,8 C 91 % 996,2 hPa 0,0 l/m 11,4 km/h (2 Bft) W-SW 255 0 min 0 W/m 2,5 C -0,2 C 22,5 km/h (4 Bft)
24.02.2017 05:39 3,8 C 91 % 996,3 hPa 0,0 l/m 11,0 km/h (2 Bft) N 355 0 min 0 W/m 2,5 C 0,0 C 30,6 km/h (5 Bft)
24.02.2017 05:42 3,8 C 91 % 996,4 hPa 0,0 l/m 9,4 km/h (2 Bft) SW 236 0 min 0 W/m 2,5 C 1,2 C 24,1 km/h (4 Bft)
24.02.2017 05:45 3,8 C 91 % 996,4 hPa 0,0 l/m 10,6 km/h (2 Bft) NW 310 0 min 0 W/m 2,5 C 0,3 C 20,9 km/h (4 Bft)
24.02.2017 05:48 3,8 C 91 % 996,6 hPa 0,0 l/m 11,9 km/h (2 Bft) NW 322 0 min 0 W/m 2,5 C -0,6 C 22,5 km/h (4 Bft)
24.02.2017 05:51 3,8 C 91 % 996,6 hPa 0,0 l/m 15,3 km/h (3 Bft) N-NW 344 0 min 0 W/m 2,5 C -2,5 C 24,1 km/h (4 Bft)
24.02.2017 05:54 3,9 C 91 % 996,7 hPa 0,0 l/m 13,7 km/h (3 Bft) N-NW 329 0 min 0 W/m 2,6 C -1,5 C 24,1 km/h (4 Bft)
24.02.2017 05:57 3,9 C 91 % 996,9 hPa 0,0 l/m 17,1 km/h (3 Bft) NW 317 0 min 0 W/m 2,6 C -3,3 C 30,6 km/h (5 Bft)
24.02.2017 06:00 3,9 C 91 % 997,0 hPa 0,0 l/m 20,6 km/h (4 Bft) W-NW 301 0 min 0 W/m 2,6 C -4,8 C 29,0 km/h (5 Bft)
24.02.2017 06:03 3,9 C 91 % 997,1 hPa 0,0 l/m 21,9 km/h (4 Bft) NW 311 0 min 0 W/m 2,6 C -5,3 C 35,4 km/h (5 Bft)
24.02.2017 06:06 3,9 C 90 % 997,2 hPa 0,0 l/m 19,7 km/h (3 Bft) W-NW 290 0 min 0 W/m 2,4 C -4,5 C 38,6 km/h (6 Bft)
24.02.2017 06:09 3,9 C 90 % 997,3 hPa 0,0 l/m 21,1 km/h (4 Bft) NW 307 0 min 0 W/m 2,4 C -5,0 C 30,6 km/h (5 Bft)
24.02.2017 06:12 3,9 C 90 % 997,4 hPa 0,0 l/m 15,5 km/h (3 Bft) NW 321 0 min 0 W/m 2,4 C -2,5 C 29,0 km/h (5 Bft)
24.02.2017 06:15 3,9 C 91 % 997,5 hPa 0,0 l/m 20,0 km/h (4 Bft) N-NW 332 0 min 0 W/m 2,6 C -4,6 C 33,8 km/h (5 Bft)
24.02.2017 06:18 3,8 C 90 % 997,6 hPa 0,0 l/m 23,5 km/h (4 Bft) NW 310 0 min 0 W/m 2,3 C -6,1 C 35,4 km/h (5 Bft)
24.02.2017 06:21 3,8 C 90 % 997,7 hPa 0,0 l/m 19,2 km/h (3 Bft) W-NW 302 0 min 0 W/m 2,3 C -4,4 C 29,0 km/h (5 Bft)
24.02.2017 06:24 3,8 C 90 % 997,8 hPa 0,0 l/m 19,1 km/h (3 Bft) NW 313 0 min 0 W/m 2,3 C -4,3 C 33,8 km/h (5 Bft)
24.02.2017 06:27 3,7 C 90 % 998,0 hPa 0,0 l/m 20,4 km/h (4 Bft) N 360 0 min 0 W/m 2,2 C -5,0 C 37,0 km/h (5 Bft)
24.02.2017 06:30 3,7 C 90 % 998,1 hPa 0,0 l/m 19,3 km/h (3 Bft) N-NW 327 0 min 0 W/m 2,2 C -4,6 C 32,2 km/h (5 Bft)
24.02.2017 06:33 3,6 C 90 % 998,2 hPa 0,0 l/m 19,5 km/h (3 Bft) N 5 0 min 0 W/m 2,1 C -4,8 C 37,0 km/h (5 Bft)
24.02.2017 06:36 3,6 C 90 % 998,3 hPa 0,0 l/m 17,9 km/h (3 Bft) NW 316 0 min 0 W/m 2,1 C -4,1 C 29,0 km/h (5 Bft)
24.02.2017 06:39 3,6 C 90 % 998,3 hPa 0,0 l/m 17,8 km/h (3 Bft) N-NW 347 0 min 0 W/m 2,1 C -4,0 C 32,2 km/h (5 Bft)
24.02.2017 06:42 3,6 C 90 % 998,5 hPa 0,0 l/m 16,9 km/h (3 Bft) N-NW 342 0 min 0 W/m 2,1 C -3,6 C 32,2 km/h (5 Bft)
24.02.2017 06:45 3,6 C 90 % 998,6 hPa 0,0 l/m 20,7 km/h (4 Bft) N-NW 343 0 min 0 W/m 2,1 C -5,3 C 38,6 km/h (6 Bft)
24.02.2017 06:48 3,6 C 90 % 998,7 hPa 0,0 l/m 23,5 km/h (4 Bft) N 360 0 min 0 W/m 2,1 C -6,3 C 35,4 km/h (5 Bft)
24.02.2017 06:51 3,5 C 90 % 998,8 hPa 0,0 l/m 17,2 km/h (3 Bft) N-NO 17 0 min 0 W/m 2,0 C -3,9 C 30,6 km/h (5 Bft)
24.02.2017 06:54 3,4 C 90 % 999,0 hPa 0,0 l/m 21,7 km/h (4 Bft) N-NW 327 0 min 0 W/m 1,9 C -5,9 C 41,8 km/h (6 Bft)
24.02.2017 06:57 3,3 C 89 % 999,1 hPa 0,0 l/m 20,4 km/h (4 Bft) NW 321 0 min 0 W/m 1,7 C -5,5 C 30,6 km/h (5 Bft)
24.02.2017 07:00 3,2 C 89 % 999,2 hPa 0,0 l/m 23,3 km/h (4 Bft) NW 315 0 min 0 W/m 1,6 C -6,8 C 38,6 km/h (6 Bft)
24.02.2017 07:03 3,2 C 89 % 999,3 hPa 0,0 l/m 22,0 km/h (4 Bft) N 355 0 min 0 W/m 1,6 C -6,3 C 38,6 km/h (6 Bft)
24.02.2017 07:06 3,2 C 88 % 999,4 hPa 0,0 l/m 23,1 km/h (4 Bft) NW 307 0 min 0 W/m 1,4 C -6,7 C 32,2 km/h (5 Bft)
24.02.2017 07:09 3,1 C 88 % 999,6 hPa 0,0 l/m 23,2 km/h (4 Bft) N-NW 343 0 min 0 W/m 1,3 C -6,9 C 32,2 km/h (5 Bft)
24.02.2017 07:12 3,1 C 88 % 999,7 hPa 0,0 l/m 19,3 km/h (3 Bft) N-NW 338 0 min 0 W/m 1,3 C -5,3 C 35,4 km/h (5 Bft)
24.02.2017 07:15 3,0 C 89 % 999,9 hPa 0,0 l/m 18,7 km/h (3 Bft) N 360 0 min 0 W/m 1,4 C -5,2 C 35,4 km/h (5 Bft)
24.02.2017 07:18 2,9 C 89 % 1000,1 hPa 0,0 l/m 18,5 km/h (3 Bft) N-NO 23 0 min 0 W/m 1,3 C -5,2 C 29,0 km/h (5 Bft)
24.02.2017 07:21 2,9 C 89 % 1000,2 hPa 0,0 l/m 15,5 km/h (3 Bft) N 355 0 min 0 W/m 1,3 C -3,7 C 37,0 km/h (5 Bft)
24.02.2017 07:24 2,8 C 89 % 1000,4 hPa 0,0 l/m 21,7 km/h (4 Bft) N 360 0 min 0 W/m 1,2 C -6,7 C 35,4 km/h (5 Bft)
24.02.2017 07:27 2,8 C 89 % 1000,5 hPa 0,0 l/m 20,8 km/h (4 Bft) N 350 0 min 0 W/m 1,2 C -6,3 C 35,4 km/h (5 Bft)
24.02.2017 07:30 2,7 C 88 % 1000,6 hPa 0,0 l/m 22,1 km/h (4 Bft) N 5 0 min 0 W/m 0,9 C -7,0 C 35,4 km/h (5 Bft)
24.02.2017 07:33 2,7 C 89 % 1000,7 hPa 0,0 l/m 20,6 km/h (4 Bft) N-NW 332 0 min 0 W/m 1,1 C -6,4 C 33,8 km/h (5 Bft)
24.02.2017 07:36 2,7 C 88 % 1000,8 hPa 0,0 l/m 16,9 km/h (3 Bft) N-NW 348 0 min 0 W/m 0,9 C -4,7 C 29,0 km/h (5 Bft)
24.02.2017 07:39 2,7 C 88 % 1000,9 hPa 0,0 l/m 16,9 km/h (3 Bft) N-NO 15 0 min 0 W/m 0,9 C -4,7 C 32,2 km/h (5 Bft)
24.02.2017 07:42 2,6 C 88 % 1001,1 hPa 0,0 l/m 15,7 km/h (3 Bft) N 355 0 min 5 W/m 0,8 C -4,2 C 27,4 km/h (5 Bft)
24.02.2017 07:45 2,6 C 88 % 1001,3 hPa 0,0 l/m 12,5 km/h (2 Bft) N-NO 19 0 min 7 W/m 0,8 C -2,3 C 22,5 km/h (4 Bft)
24.02.2017 07:48 2,5 C 88 % 1001,3 hPa 0,0 l/m 15,3 km/h (3 Bft) N-NO 30 0 min 7 W/m 0,7 C -4,1 C 27,4 km/h (5 Bft)
24.02.2017 07:51 2,5 C 88 % 1001,5 hPa 0,0 l/m 16,2 km/h (3 Bft) N 5 0 min 9 W/m 0,7 C -4,6 C 25,7 km/h (4 Bft)
24.02.2017 07:54 2,5 C 87 % 1001,7 hPa 0,0 l/m 14,3 km/h (3 Bft) NW 316 0 min 9 W/m 0,6 C -3,6 C 27,4 km/h (5 Bft)
24.02.2017 07:57 2,6 C 87 % 1001,8 hPa 0,0 l/m 15,4 km/h (3 Bft) N 350 0 min 11 W/m 0,7 C -4,1 C 27,4 km/h (5 Bft)
24.02.2017 08:00 2,6 C 87 % 1001,9 hPa 0,0 l/m 17,6 km/h (3 Bft) N-NW 327 0 min 11 W/m 0,7 C -5,2 C 29,0 km/h (5 Bft)
24.02.2017 08:03 2,7 C 87 % 1002,0 hPa 0,0 l/m 16,3 km/h (3 Bft) N-NW 329 0 min 11 W/m 0,8 C -4,4 C 30,6 km/h (5 Bft)
24.02.2017 08:06 2,7 C 86 % 1002,0 hPa 0,0 l/m 14,7 km/h (3 Bft) NW 323 0 min 9 W/m 0,6 C -3,5 C 24,1 km/h (4 Bft)
24.02.2017 08:09 2,7 C 86 % 1002,1 hPa 0,0 l/m 15,8 km/h (3 Bft) NW 320 0 min 9 W/m 0,6 C -4,1 C 25,7 km/h (4 Bft)
24.02.2017 08:12 2,7 C 85 % 1002,2 hPa 0,0 l/m 14,8 km/h (3 Bft) N-NO 13 0 min 9 W/m 0,4 C -3,6 C 25,7 km/h (4 Bft)
24.02.2017 08:15 2,8 C 85 % 1002,2 hPa 0,0 l/m 12,7 km/h (3 Bft) N 5 0 min 9 W/m 0,5 C -2,2 C 27,4 km/h (5 Bft)
24.02.2017 08:18 2,8 C 85 % 1002,3 hPa 0,0 l/m 17,0 km/h (3 Bft) N 9 0 min 9 W/m 0,5 C -4,6 C 32,2 km/h (5 Bft)
24.02.2017 08:21 2,9 C 85 % 1002,4 hPa 0,0 l/m 15,0 km/h (3 Bft) N-NW 341 0 min 11 W/m 0,6 C -3,5 C 25,7 km/h (4 Bft)
24.02.2017 08:24 2,9 C 85 % 1002,4 hPa 0,0 l/m 13,9 km/h (3 Bft) N 11 0 min 12 W/m 0,6 C -2,8 C 22,5 km/h (4 Bft)
24.02.2017 08:27 2,9 C 85 % 1002,6 hPa 0,0 l/m 15,5 km/h (3 Bft) N 5 0 min 12 W/m 0,6 C -3,7 C 27,4 km/h (5 Bft)
24.02.2017 08:30 2,9 C 85 % 1002,7 hPa 0,0 l/m 15,8 km/h (3 Bft) N-NW 331 0 min 12 W/m 0,6 C -3,9 C 25,7 km/h (4 Bft)
24.02.2017 08:33 3,0 C 84 % 1002,7 hPa 0,0 l/m 15,2 km/h (3 Bft) NW 323 0 min 14 W/m 0,6 C -3,5 C 25,7 km/h (4 Bft)
24.02.2017 08:36 3,1 C 84 % 1002,8 hPa 0,0 l/m 15,8 km/h (3 Bft) NW 317 0 min 12 W/m 0,7 C -3,7 C 32,2 km/h (5 Bft)
24.02.2017 08:39 3,1 C 83 % 1002,9 hPa 0,0 l/m 16,3 km/h (3 Bft) N-NW 346 0 min 12 W/m 0,5 C -3,9 C 24,1 km/h (4 Bft)
24.02.2017 08:42 3,1 C 83 % 1003,1 hPa 0,0 l/m 14,2 km/h (3 Bft) N 360 0 min 12 W/m 0,5 C -2,8 C 24,1 km/h (4 Bft)
24.02.2017 08:45 3,1 C 83 % 1003,1 hPa 0,0 l/m 14,5 km/h (3 Bft) N-NW 335 0 min 16 W/m 0,5 C -2,9 C 25,7 km/h (4 Bft)
24.02.2017 08:48 3,2 C 83 % 1003,1 hPa 0,0 l/m 15,6 km/h (3 Bft) N-NO 33 0 min 18 W/m 0,6 C -3,4 C 25,7 km/h (4 Bft)
24.02.2017 08:51 3,2 C 82 % 1003,4 hPa 0,0 l/m 18,4 km/h (3 Bft) NW 316 0 min 16 W/m 0,4 C -4,8 C 30,6 km/h (5 Bft)
24.02.2017 08:54 3,2 C 81 % 1003,4 hPa 0,0 l/m 15,8 km/h (3 Bft) NW 319 0 min 19 W/m 0,3 C -3,5 C 25,7 km/h (4 Bft)
24.02.2017 08:57 3,2 C 81 % 1003,5 hPa 0,0 l/m 15,1 km/h (3 Bft) N 355 0 min 21 W/m 0,3 C -3,2 C 24,1 km/h (4 Bft)
24.02.2017 09:00 3,2 C 81 % 1003,6 hPa 0,0 l/m 15,5 km/h (3 Bft) NW 325 0 min 23 W/m 0,3 C -3,4 C 29,0 km/h (5 Bft)
24.02.2017 09:03 3,3 C 80 % 1003,7 hPa 0,0 l/m 17,1 km/h (3 Bft) N 5 0 min 23 W/m 0,2 C -4,1 C 25,7 km/h (4 Bft)
24.02.2017 09:06 3,3 C 80 % 1003,8 hPa 0,0 l/m 14,8 km/h (3 Bft) N 355 0 min 21 W/m 0,2 C -2,9 C 24,1 km/h (4 Bft)
24.02.2017 09:09 3,3 C 79 % 1003,9 hPa 0,0 l/m 16,5 km/h (3 Bft) NW 323 0 min 21 W/m 0,0 C -3,8 C 25,7 km/h (4 Bft)
24.02.2017 09:12 3,4 C 79 % 1004,0 hPa 0,0 l/m 16,8 km/h (3 Bft) N-NW 327 0 min 21 W/m 0,1 C -3,8 C 27,4 km/h (5 Bft)
24.02.2017 09:15 3,5 C 79 % 1004,0 hPa 0,0 l/m 15,3 km/h (3 Bft) NW 316 0 min 23 W/m 0,2 C -2,9 C 24,1 km/h (4 Bft)
24.02.2017 09:18 3,5 C 80 % 1004,2 hPa 0,0 l/m 15,1 km/h (3 Bft) N 360 0 min 23 W/m 0,4 C -2,8 C 25,7 km/h (4 Bft)
24.02.2017 09:21 3,6 C 79 % 1004,2 hPa 0,0 l/m 14,2 km/h (3 Bft) N 355 0 min 23 W/m 0,3 C -2,2 C 25,7 km/h (4 Bft)
24.02.2017 09:24 3,6 C 79 % 1004,3 hPa 0,0 l/m 14,6 km/h (3 Bft) N 350 0 min 25 W/m 0,3 C -2,4 C 24,1 km/h (4 Bft)
24.02.2017 09:27 3,6 C 78 % 1004,4 hPa 0,0 l/m 15,4 km/h (3 Bft) N 5 0 min 25 W/m 0,1 C -2,8 C 24,1 km/h (4 Bft)
24.02.2017 09:30 3,7 C 78 % 1004,5 hPa 0,0 l/m 14,2 km/h (3 Bft) N-NW 336 0 min 25 W/m 0,2 C -2,1 C 29,0 km/h (5 Bft)
24.02.2017 09:33 3,7 C 78 % 1004,5 hPa 0,0 l/m 12,7 km/h (3 Bft) N-NW 341 0 min 25 W/m 0,2 C -1,2 C 22,5 km/h (4 Bft)
24.02.2017 09:36 3,7 C 79 % 1004,6 hPa 0,0 l/m 11,8 km/h (2 Bft) N-NW 348 0 min 26 W/m 0,4 C -0,6 C 22,5 km/h (4 Bft)
24.02.2017 09:39 3,8 C 79 % 1004,7 hPa 0,0 l/m 11,1 km/h (2 Bft) NW 321 0 min 26 W/m 0,5 C -0,0 C 22,5 km/h (4 Bft)
24.02.2017 09:42 3,8 C 79 % 1004,8 hPa 0,0 l/m 13,3 km/h (3 Bft) N-NW 332 0 min 26 W/m 0,5 C -1,4 C 20,9 km/h (4 Bft)
24.02.2017 09:45 3,8 C 78 % 1004,9 hPa 0,0 l/m 12,8 km/h (3 Bft) N 360 0 min 28 W/m 0,3 C -1,1 C 19,3 km/h (3 Bft)
24.02.2017 09:48 3,8 C 79 % 1005,0 hPa 0,0 l/m 12,0 km/h (2 Bft) N 5 0 min 37 W/m 0,5 C -0,6 C 19,3 km/h (3 Bft)
24.02.2017 09:51 3,8 C 79 % 1005,1 hPa 0,0 l/m 11,8 km/h (2 Bft) N-NW 328 0 min 56 W/m 0,5 C -0,5 C 20,9 km/h (4 Bft)
24.02.2017 09:54 3,9 C 79 % 1005,1 hPa 0,0 l/m 10,5 km/h (2 Bft) NW 310 0 min 35 W/m 0,6 C 0,5 C 19,3 km/h (3 Bft)
24.02.2017 09:57 4,0 C 80 % 1005,2 hPa 0,0 l/m 13,5 km/h (3 Bft) N-NW 329 0 min 32 W/m 0,9 C -1,3 C 19,3 km/h (3 Bft)
24.02.2017 10:00 4,1 C 80 % 1005,3 hPa 0,0 l/m 11,8 km/h (2 Bft) N-NW 334 0 min 32 W/m 1,0 C -0,2 C 19,3 km/h (3 Bft)
24.02.2017 10:03 4,2 C 81 % 1005,3 hPa 0,0 l/m 8,1 km/h (2 Bft) N-NW 338 0 min 33 W/m 1,2 C 2,7 C 16,1 km/h (3 Bft)
24.02.2017 10:06 4,2 C 82 % 1005,3 hPa 0,0 l/m 9,4 km/h (2 Bft) W-NW 295 0 min 40 W/m 1,4 C 1,6 C 19,3 km/h (3 Bft)
24.02.2017 10:09 4,3 C 83 % 1005,4 hPa 0,0 l/m 7,0 km/h (2 Bft) W 271 0 min 42 W/m 1,7 C 3,8 C 14,5 km/h (3 Bft)
24.02.2017 10:12 4,3 C 83 % 1005,5 hPa 0,0 l/m 6,7 km/h (2 Bft) NW 306 0 min 35 W/m 1,7 C 4,0 C 16,1 km/h (3 Bft)
24.02.2017 10:15 4,4 C 83 % 1005,6 hPa 0,0 l/m 10,6 km/h (2 Bft) NW 323 0 min 33 W/m 1,8 C 1,0 C 19,3 km/h (3 Bft)
24.02.2017 10:18 4,4 C 83 % 1005,6 hPa 0,0 l/m 10,7 km/h (2 Bft) NW 310 0 min 33 W/m 1,8 C 0,9 C 24,1 km/h (4 Bft)
24.02.2017 10:21 4,6 C 83 % 1005,7 hPa 0,0 l/m 11,0 km/h (2 Bft) NW 317 0 min 33 W/m 2,0 C 0,9 C 19,3 km/h (3 Bft)
24.02.2017 10:24 4,6 C 83 % 1005,8 hPa 0,0 l/m 11,3 km/h (2 Bft) N-NW 331 0 min 33 W/m 2,0 C 0,7 C 20,9 km/h (4 Bft)
24.02.2017 10:27 4,6 C 83 % 1005,8 hPa 0,0 l/m 9,6 km/h (2 Bft) NW 309 0 min 33 W/m 2,0 C 1,9 C 20,9 km/h (4 Bft)
24.02.2017 10:30 4,6 C 82 % 1005,9 hPa 0,0 l/m 11,8 km/h (2 Bft) N-NW 330 0 min 33 W/m 1,8 C 0,4 C 17,7 km/h (3 Bft)
24.02.2017 10:33 4,7 C 82 % 1005,9 hPa 0,0 l/m 9,8 km/h (2 Bft) NW 320 0 min 33 W/m 1,9 C 1,9 C 17,7 km/h (3 Bft)
24.02.2017 10:36 4,7 C 82 % 1006,0 hPa 0,0 l/m 12,9 km/h (3 Bft) N-NW 340 0 min 35 W/m 1,9 C -0,1 C 24,1 km/h (4 Bft)
24.02.2017 10:39 4,8 C 81 % 1006,1 hPa 0,0 l/m 10,7 km/h (2 Bft) W-NW 298 0 min 35 W/m 1,8 C 1,4 C 16,1 km/h (3 Bft)
24.02.2017 10:42 4,8 C 80 % 1006,1 hPa 0,0 l/m 11,9 km/h (2 Bft) N-NW 329 0 min 35 W/m 1,6 C 0,6 C 20,9 km/h (4 Bft)
24.02.2017 10:45 4,8 C 80 % 1006,2 hPa 0,0 l/m 10,7 km/h (2 Bft) NW 306 0 min 111 W/m 1,6 C 1,4 C 19,3 km/h (3 Bft)
24.02.2017 10:48 4,9 C 80 % 1006,3 hPa 0,0 l/m 9,9 km/h (2 Bft) NW 326 0 min 49 W/m 1,7 C 2,0 C 16,1 km/h (3 Bft)
24.02.2017 10:51 5,0 C 79 % 1006,3 hPa 0,0 l/m 9,3 km/h (2 Bft) NW 311 0 min 51 W/m 1,7 C 2,6 C 16,1 km/h (3 Bft)
24.02.2017 10:54 5,1 C 77 % 1006,4 hPa 0,0 l/m 9,7 km/h (2 Bft) NW 311 0 min 49 W/m 1,4 C 2,4 C 20,9 km/h (4 Bft)
24.02.2017 10:57 5,1 C 77 % 1006,5 hPa 0,0 l/m 10,5 km/h (2 Bft) W-NW 300 0 min 172 W/m 1,4 C 1,8 C 17,7 km/h (3 Bft)
24.02.2017 11:00 5,2 C 76 % 1006,5 hPa 0,0 l/m 8,2 km/h (2 Bft) NW 319 3 min 371 W/m 1,3 C 3,6 C 16,1 km/h (3 Bft)
24.02.2017 11:03 5,3 C 76 % 1006,6 hPa 0,0 l/m 8,8 km/h (2 Bft) W-SW 248 3 min 374 W/m 1,4 C 3,3 C 17,7 km/h (3 Bft)
24.02.2017 11:06 5,3 C 77 % 1006,7 hPa 0,0 l/m 5,5 km/h (2 Bft) N-NW 328 3 min 374 W/m 1,6 C 5,3 C 12,9 km/h (3 Bft)
24.02.2017 11:09 5,5 C 78 % 1006,7 hPa 0,0 l/m 6,0 km/h (2 Bft) NW 314 3 min 376 W/m 2,0 C 5,5 C 12,9 km/h (3 Bft)
24.02.2017 11:12 5,7 C 78 % 1006,7 hPa 0,0 l/m 8,8 km/h (2 Bft) W-NW 292 3 min 378 W/m 2,2 C 3,7 C 19,3 km/h (3 Bft)
24.02.2017 11:15 5,8 C 77 % 1006,8 hPa 0,0 l/m 8,8 km/h (2 Bft) W 274 3 min 388 W/m 2,1 C 3,8 C 16,1 km/h (3 Bft)
24.02.2017 11:18 5,8 C 80 % 1006,9 hPa 0,0 l/m 13,4 km/h (3 Bft) W 272 3 min 383 W/m 2,6 C 0,9 C 22,5 km/h (4 Bft)
24.02.2017 11:21 5,6 C 81 % 1007,0 hPa 0,0 l/m 12,7 km/h (3 Bft) W 275 3 min 397 W/m 2,6 C 1,0 C 20,9 km/h (4 Bft)
24.02.2017 11:24 5,7 C 83 % 1007,1 hPa 0,0 l/m 11,0 km/h (2 Bft) NW 314 3 min 396 W/m 3,0 C 2,2 C 20,9 km/h (4 Bft)
24.02.2017 11:27 5,6 C 82 % 1007,1 hPa 0,0 l/m 6,9 km/h (2 Bft) W 279 3 min 396 W/m 2,8 C 5,2 C 16,1 km/h (3 Bft)
24.02.2017 11:30 5,7 C 83 % 1007,2 hPa 0,0 l/m 8,5 km/h (2 Bft) W-NW 291 3 min 401 W/m 3,0 C 3,9 C 16,1 km/h (3 Bft)
24.02.2017 11:33 5,7 C 83 % 1007,2 hPa 0,0 l/m 9,3 km/h (2 Bft) W 278 3 min 406 W/m 3,0 C 3,3 C 20,9 km/h (4 Bft)
24.02.2017 11:36 5,7 C 82 % 1007,2 hPa 0,0 l/m 12,4 km/h (2 Bft) W-SW 251 3 min 411 W/m 2,9 C 1,3 C 20,9 km/h (4 Bft)
24.02.2017 11:39 5,9 C 82 % 1007,2 hPa 0,0 l/m 12,8 km/h (3 Bft) W 265 3 min 417 W/m 3,1 C 1,3 C 24,1 km/h (4 Bft)
24.02.2017 11:42 6,0 C 80 % 1007,2 hPa 0,0 l/m 14,5 km/h (3 Bft) W 261 3 min 420 W/m 2,8 C 0,5 C 30,6 km/h (5 Bft)
24.02.2017 11:45 6,0 C 78 % 1007,2 hPa 0,0 l/m 14,2 km/h (3 Bft) W 271 3 min 424 W/m 2,5 C 0,7 C 24,1 km/h (4 Bft)
24.02.2017 11:48 6,1 C 78 % 1007,3 hPa 0,0 l/m 14,7 km/h (3 Bft) W 280 3 min 427 W/m 2,6 C 0,6 C 22,5 km/h (4 Bft)
24.02.2017 11:51 6,1 C 76 % 1007,3 hPa 0,0 l/m 13,0 km/h (3 Bft) W 277 3 min 432 W/m 2,2 C 1,5 C 20,9 km/h (4 Bft)
24.02.2017 11:54 6,2 C 77 % 1007,4 hPa 0,0 l/m 11,7 km/h (2 Bft) W 275 3 min 424 W/m 2,5 C 2,3 C 20,9 km/h (4 Bft)
24.02.2017 11:57 6,3 C 75 % 1007,4 hPa 0,0 l/m 12,2 km/h (2 Bft) W-NW 294 3 min 425 W/m 2,2 C 2,1 C 20,9 km/h (4 Bft)
24.02.2017 12:00 6,4 C 75 % 1007,5 hPa 0,0 l/m 11,9 km/h (2 Bft) W-SW 249 3 min 429 W/m 2,3 C 2,4 C 22,5 km/h (4 Bft)
24.02.2017 12:03 6,4 C 76 % 1007,6 hPa 0,0 l/m 6,4 km/h (2 Bft) W 263 3 min 431 W/m 2,5 C 6,4 C 19,3 km/h (3 Bft)
24.02.2017 12:06 6,4 C 77 % 1007,6 hPa 0,0 l/m 11,7 km/h (2 Bft) W-SW 258 3 min 431 W/m 2,7 C 2,5 C 20,9 km/h (4 Bft)
24.02.2017 12:09 6,4 C 76 % 1007,7 hPa 0,0 l/m 8,9 km/h (2 Bft) W 269 3 min 431 W/m 2,5 C 4,4 C 17,7 km/h (3 Bft)
24.02.2017 12:12 6,4 C 77 % 1007,8 hPa 0,0 l/m 13,0 km/h (3 Bft) W 261 3 min 420 W/m 2,7 C 1,8 C 22,5 km/h (4 Bft)
24.02.2017 12:15 6,4 C 77 % 1007,8 hPa 0,0 l/m 10,7 km/h (2 Bft) W 269 3 min 410 W/m 2,7 C 3,2 C 19,3 km/h (3 Bft)
24.02.2017 12:18 6,5 C 77 % 1007,8 hPa 0,0 l/m 10,0 km/h (2 Bft) W 272 3 min 394 W/m 2,8 C 3,7 C 24,1 km/h (4 Bft)
24.02.2017 12:21 6,6 C 78 % 1007,8 hPa 0,0 l/m 12,0 km/h (2 Bft) W 271 3 min 381 W/m 3,0 C 2,6 C 20,9 km/h (4 Bft)
24.02.2017 12:24 6,7 C 78 % 1007,8 hPa 0,0 l/m 9,3 km/h (2 Bft) S-SW 211 3 min 369 W/m 3,1 C 4,4 C 16,1 km/h (3 Bft)
24.02.2017 12:27 6,7 C 78 % 1007,8 hPa 0,0 l/m 12,5 km/h (2 Bft) SW 232 3 min 359 W/m 3,1 C 2,4 C 20,9 km/h (4 Bft)
24.02.2017 12:30 6,8 C 81 % 1007,8 hPa 0,0 l/m 10,1 km/h (2 Bft) W 259 3 min 353 W/m 3,8 C 4,0 C 16,1 km/h (3 Bft)
24.02.2017 12:33 6,9 C 80 % 1007,9 hPa 0,0 l/m 12,0 km/h (2 Bft) W-SW 248 3 min 353 W/m 3,7 C 2,9 C 22,5 km/h (4 Bft)
24.02.2017 12:36 6,7 C 79 % 1007,9 hPa 0,0 l/m 8,5 km/h (2 Bft) W-NW 302 3 min 359 W/m 3,3 C 5,0 C 16,1 km/h (3 Bft)
24.02.2017 12:39 6,8 C 80 % 1007,9 hPa 0,0 l/m 12,0 km/h (2 Bft) W-SW 257 3 min 369 W/m 3,6 C 2,8 C 22,5 km/h (4 Bft)
24.02.2017 12:42 6,8 C 78 % 1007,9 hPa 0,0 l/m 10,7 km/h (2 Bft) W-NW 286 3 min 385 W/m 3,2 C 3,6 C 25,7 km/h (4 Bft)
24.02.2017 12:45 6,8 C 79 % 1007,9 hPa 0,0 l/m 9,3 km/h (2 Bft) W-SW 254 3 min 390 W/m 3,4 C 4,5 C 20,9 km/h (4 Bft)
24.02.2017 12:48 6,8 C 79 % 1008,0 hPa 0,0 l/m 11,4 km/h (2 Bft) SW 234 3 min 388 W/m 3,4 C 3,2 C 20,9 km/h (4 Bft)
24.02.2017 12:51 6,7 C 79 % 1008,0 hPa 0,0 l/m 14,4 km/h (3 Bft) SW 233 3 min 376 W/m 3,3 C 1,4 C 20,9 km/h (4 Bft)
24.02.2017 12:54 6,7 C 80 % 1008,0 hPa 0,0 l/m 12,2 km/h (2 Bft) W 259 3 min 362 W/m 3,5 C 2,6 C 19,3 km/h (3 Bft)
24.02.2017 12:57 6,9 C 79 % 1008,1 hPa 0,0 l/m 13,9 km/h (3 Bft) W 278 3 min 346 W/m 3,5 C 1,9 C 25,7 km/h (4 Bft)
24.02.2017 13:00 6,8 C 79 % 1008,1 hPa 0,0 l/m 14,7 km/h (3 Bft) W-SW 249 3 min 353 W/m 3,4 C 1,4 C 25,7 km/h (4 Bft)
24.02.2017 13:03 6,7 C 78 % 1008,2 hPa 0,0 l/m 12,1 km/h (2 Bft) W 267 3 min 315 W/m 3,1 C 2,7 C 20,9 km/h (4 Bft)
24.02.2017 13:06 6,7 C 80 % 1008,2 hPa 0,0 l/m 11,4 km/h (2 Bft) W-SW 252 3 min 401 W/m 3,5 C 3,1 C 22,5 km/h (4 Bft)
24.02.2017 13:09 6,7 C 79 % 1008,3 hPa 0,0 l/m 9,9 km/h (2 Bft) W 281 3 min 422 W/m 3,3 C 4,0 C 17,7 km/h (3 Bft)
24.02.2017 13:12 6,7 C 80 % 1008,3 hPa 0,0 l/m 9,5 km/h (2 Bft) W-NW 288 3 min 436 W/m 3,5 C 4,3 C 19,3 km/h (3 Bft)
24.02.2017 13:15 6,8 C 81 % 1008,3 hPa 0,0 l/m 10,8 km/h (2 Bft) SW 229 3 min 436 W/m 3,8 C 3,5 C 19,3 km/h (3 Bft)
24.02.2017 13:18 6,8 C 80 % 1008,3 hPa 0,0 l/m 10,9 km/h (2 Bft) W 271 3 min 441 W/m 3,6 C 3,5 C 22,5 km/h (4 Bft)
24.02.2017 13:21 6,8 C 80 % 1008,3 hPa 0,0 l/m 17,1 km/h (3 Bft) W-NW 300 3 min 441 W/m 3,6 C 0,3 C 25,7 km/h (4 Bft)
24.02.2017 13:24 6,8 C 79 % 1008,4 hPa 0,0 l/m 11,5 km/h (2 Bft) W 273 3 min 436 W/m 3,4 C 3,1 C 22,5 km/h (4 Bft)
24.02.2017 13:27 6,8 C 80 % 1008,4 hPa 0,0 l/m 13,1 km/h (3 Bft) W-SW 254 3 min 431 W/m 3,6 C 2,2 C 19,3 km/h (3 Bft)
24.02.2017 13:30 6,8 C 80 % 1008,5 hPa 0,0 l/m 10,9 km/h (2 Bft) W 275 3 min 434 W/m 3,6 C 3,5 C 22,5 km/h (4 Bft)
24.02.2017 13:33 6,8 C 79 % 1008,5 hPa 0,0 l/m 13,9 km/h (3 Bft) W 263 3 min 432 W/m 3,4 C 1,8 C 25,7 km/h (4 Bft)
24.02.2017 13:36 6,9 C 79 % 1008,7 hPa 0,0 l/m 10,5 km/h (2 Bft) W 275 3 min 431 W/m 3,5 C 3,8 C 16,1 km/h (3 Bft)
24.02.2017 13:39 6,9 C 78 % 1008,7 hPa 0,0 l/m 15,8 km/h (3 Bft) SW 235 3 min 434 W/m 3,3 C 1,0 C 27,4 km/h (5 Bft)
24.02.2017 13:42 6,9 C 79 % 1008,7 hPa 0,0 l/m 12,2 km/h (2 Bft) W 279 3 min 452 W/m 3,5 C 2,8 C 20,9 km/h (4 Bft)
24.02.2017 13:45 6,9 C 78 % 1008,8 hPa 0,0 l/m 13,1 km/h (3 Bft) W 273 3 min 462 W/m 3,3 C 2,3 C 20,9 km/h (4 Bft)
24.02.2017 13:48 7,0 C 78 % 1008,8 hPa 0,0 l/m 14,4 km/h (3 Bft) W-NW 292 3 min 436 W/m 3,4 C 1,8 C 24,1 km/h (4 Bft)
24.02.2017 13:51 6,9 C 78 % 1008,8 hPa 0,0 l/m 15,3 km/h (3 Bft) W-NW 284 3 min 424 W/m 3,3 C 1,2 C 24,1 km/h (4 Bft)
24.02.2017 13:54 6,8 C 79 % 1008,8 hPa 0,0 l/m 12,8 km/h (3 Bft) W-NW 301 3 min 418 W/m 3,4 C 2,4 C 22,5 km/h (4 Bft)
24.02.2017 13:57 6,9 C 79 % 1008,9 hPa 0,0 l/m 13,8 km/h (3 Bft) W-SW 242 3 min 417 W/m 3,5 C 2,0 C 24,1 km/h (4 Bft)
24.02.2017 14:00 6,9 C 79 % 1008,9 hPa 0,0 l/m 9,6 km/h (2 Bft) W-NW 284 3 min 411 W/m 3,5 C 4,4 C 20,9 km/h (4 Bft)
24.02.2017 14:03 7,2 C 80 % 1008,9 hPa 0,0 l/m 12,4 km/h (2 Bft) W 263 3 min 410 W/m 4,0 C 3,1 C 22,5 km/h (4 Bft)
24.02.2017 14:06 7,4 C 79 % 1009,0 hPa 0,0 l/m 12,8 km/h (3 Bft) W-SW 248 3 min 411 W/m 4,0 C 3,1 C 20,9 km/h (4 Bft)
24.02.2017 14:09 7,2 C 78 % 1009,0 hPa 0,0 l/m 12,9 km/h (3 Bft) W-NW 289 3 min 410 W/m 3,6 C 2,8 C 19,3 km/h (3 Bft)
24.02.2017 14:12 7,1 C 79 % 1009,1 hPa 0,0 l/m 14,0 km/h (3 Bft) W 269 3 min 411 W/m 3,7 C 2,1 C 24,1 km/h (4 Bft)
24.02.2017 14:15 6,9 C 80 % 1009,1 hPa 0,0 l/m 12,1 km/h (2 Bft) W 259 3 min 415 W/m 3,7 C 2,9 C 19,3 km/h (3 Bft)
24.02.2017 14:18 7,1 C 80 % 1009,1 hPa 0,0 l/m 15,0 km/h (3 Bft) W 267 3 min 425 W/m 3,9 C 1,6 C 24,1 km/h (4 Bft)
24.02.2017 14:21 7,0 C 78 % 1009,2 hPa 0,0 l/m 16,6 km/h (3 Bft) W-SW 255 3 min 417 W/m 3,4 C 0,8 C 29,0 km/h (5 Bft)
24.02.2017 14:24 6,8 C 78 % 1009,1 hPa 0,0 l/m 13,3 km/h (3 Bft) W 279 3 min 408 W/m 3,2 C 2,1 C 22,5 km/h (4 Bft)
24.02.2017 14:27 6,9 C 78 % 1009,1 hPa 0,0 l/m 15,8 km/h (3 Bft) W-SW 254 3 min 396 W/m 3,3 C 1,0 C 25,7 km/h (4 Bft)
24.02.2017 14:30 6,8 C 78 % 1009,2 hPa 0,0 l/m 13,6 km/h (3 Bft) W 275 3 min 381 W/m 3,2 C 2,0 C 22,5 km/h (4 Bft)
24.02.2017 14:33 6,9 C 79 % 1009,1 hPa 0,0 l/m 12,9 km/h (3 Bft) SW 228 3 min 376 W/m 3,5 C 2,4 C 25,7 km/h (4 Bft)
24.02.2017 14:36 6,9 C 80 % 1009,2 hPa 0,0 l/m 13,6 km/h (3 Bft) W 269 3 min 371 W/m 3,7 C 2,1 C 25,7 km/h (4 Bft)
24.02.2017 14:39 6,9 C 79 % 1009,3 hPa 0,0 l/m 12,2 km/h (2 Bft) W-NW 288 3 min 366 W/m 3,5 C 2,8 C 20,9 km/h (4 Bft)
24.02.2017 14:42 6,9 C 80 % 1009,2 hPa 0,0 l/m 13,4 km/h (3 Bft) W-NW 294 3 min 362 W/m 3,7 C 2,2 C 22,5 km/h (4 Bft)
24.02.2017 14:45 6,9 C 79 % 1009,3 hPa 0,0 l/m 12,2 km/h (2 Bft) W-SW 251 3 min 357 W/m 3,5 C 2,8 C 19,3 km/h (3 Bft)
24.02.2017 14:48 6,9 C 80 % 1009,3 hPa 0,0 l/m 11,5 km/h (2 Bft) W-SW 243 3 min 352 W/m 3,7 C 3,2 C 20,9 km/h (4 Bft)
24.02.2017 14:51 6,8 C 80 % 1009,3 hPa 0,0 l/m 11,7 km/h (2 Bft) W-NW 286 3 min 350 W/m 3,6 C 3,0 C 20,9 km/h (4 Bft)
24.02.2017 14:54 6,6 C 81 % 1009,3 hPa 0,0 l/m 13,8 km/h (3 Bft) W 271 3 min 341 W/m 3,6 C 1,6 C 22,5 km/h (4 Bft)
24.02.2017 14:57 6,6 C 82 % 1009,3 hPa 0,0 l/m 12,3 km/h (2 Bft) W-SW 257 3 min 334 W/m 3,8 C 2,4 C 24,1 km/h (4 Bft)
24.02.2017 15:00 6,6 C 82 % 1009,3 hPa 0,0 l/m 10,3 km/h (2 Bft) SW 217 3 min 327 W/m 3,8 C 3,6 C 22,5 km/h (4 Bft)
24.02.2017 15:03 6,6 C 82 % 1009,4 hPa 0,0 l/m 12,4 km/h (2 Bft) SW 223 3 min 320 W/m 3,8 C 2,4 C 25,7 km/h (4 Bft)
24.02.2017 15:06 6,5 C 82 % 1009,4 hPa 0,0 l/m 15,0 km/h (3 Bft) NW 305 3 min 276 W/m 3,7 C 0,9 C 29,0 km/h (5 Bft)
24.02.2017 15:09 6,4 C 83 % 1009,4 hPa 0,0 l/m 13,9 km/h (3 Bft) W-SW 257 0 min 53 W/m 3,7 C 1,3 C 25,7 km/h (4 Bft)
24.02.2017 15:12 6,5 C 83 % 1009,4 hPa 0,0 l/m 10,5 km/h (2 Bft) SW 234 0 min 51 W/m 3,8 C 3,4 C 19,3 km/h (3 Bft)
24.02.2017 15:15 6,4 C 83 % 1009,5 hPa 0,0 l/m 14,8 km/h (3 Bft) W-NW 289 0 min 49 W/m 3,7 C 0,9 C 27,4 km/h (5 Bft)
24.02.2017 15:18 6,3 C 83 % 1009,5 hPa 0,0 l/m 12,2 km/h (2 Bft) SW 234 0 min 47 W/m 3,6 C 2,1 C 20,9 km/h (4 Bft)
24.02.2017 15:21 6,3 C 83 % 1009,5 hPa 0,0 l/m 12,9 km/h (3 Bft) W-NW 300 0 min 47 W/m 3,6 C 1,7 C 20,9 km/h (4 Bft)
24.02.2017 15:24 6,3 C 84 % 1009,5 hPa 0,0 l/m 15,7 km/h (3 Bft) W-SW 254 0 min 49 W/m 3,8 C 0,3 C 22,5 km/h (4 Bft)
24.02.2017 15:27 6,3 C 84 % 1009,5 hPa 0,0 l/m 14,3 km/h (3 Bft) W-SW 248 0 min 47 W/m 3,8 C 1,0 C 24,1 km/h (4 Bft)
24.02.2017 15:30 6,2 C 84 % 1009,7 hPa 0,0 l/m 11,3 km/h (2 Bft) W 269 0 min 47 W/m 3,7 C 2,6 C 19,3 km/h (3 Bft)
24.02.2017 15:33 6,2 C 84 % 1009,7 hPa 0,0 l/m 12,5 km/h (2 Bft) W-SW 252 0 min 47 W/m 3,7 C 1,8 C 22,5 km/h (4 Bft)
24.02.2017 15:36 6,1 C 84 % 1009,7 hPa 0,0 l/m 14,0 km/h (3 Bft) W 276 0 min 49 W/m 3,6 C 0,9 C 22,5 km/h (4 Bft)
24.02.2017 15:39 6,1 C 84 % 1009,8 hPa 0,0 l/m 13,9 km/h (3 Bft) W-SW 237 0 min 46 W/m 3,6 C 1,0 C 27,4 km/h (5 Bft)
24.02.2017 15:42 6,0 C 84 % 1009,8 hPa 0,0 l/m 13,7 km/h (3 Bft) W 275 0 min 46 W/m 3,5 C 1,0 C 20,9 km/h (4 Bft)
24.02.2017 15:45 5,9 C 84 % 1009,8 hPa 0,0 l/m 17,8 km/h (3 Bft) W 278 0 min 49 W/m 3,4 C -1,1 C 29,0 km/h (5 Bft)
24.02.2017 15:48 5,9 C 85 % 1009,9 hPa 0,0 l/m 16,9 km/h (3 Bft) W-NW 286 0 min 60 W/m 3,6 C -0,7 C 27,4 km/h (5 Bft)
24.02.2017 15:51 5,9 C 85 % 1010,0 hPa 0,0 l/m 13,5 km/h (3 Bft) W 277 0 min 84 W/m 3,6 C 0,9 C 25,7 km/h (4 Bft)
24.02.2017 15:54 6,0 C 85 % 1010,0 hPa 0,0 l/m 13,4 km/h (3 Bft) W 276 0 min 123 W/m 3,7 C 1,1 C 20,9 km/h (4 Bft)
24.02.2017 15:57 6,1 C 85 % 1010,1 hPa 0,0 l/m 11,2 km/h (2 Bft) W-SW 257 3 min 156 W/m 3,8 C 2,5 C 24,1 km/h (4 Bft)
24.02.2017 16:00 6,2 C 85 % 1010,1 hPa 0,0 l/m 11,1 km/h (2 Bft) W-NW 286 3 min 171 W/m 3,9 C 2,7 C 17,7 km/h (3 Bft)
24.02.2017 16:03 6,1 C 84 % 1010,2 hPa 0,0 l/m 15,5 km/h (3 Bft) W-NW 288 3 min 141 W/m 3,6 C 0,2 C 27,4 km/h (5 Bft)
24.02.2017 16:06 6,0 C 82 % 1010,3 hPa 0,0 l/m 17,7 km/h (3 Bft) W-NW 301 3 min 141 W/m 3,2 C -1,0 C 29,0 km/h (5 Bft)
24.02.2017 16:09 5,8 C 79 % 1010,4 hPa 0,0 l/m 15,0 km/h (3 Bft) W 265 3 min 148 W/m 2,4 C 0,0 C 32,2 km/h (5 Bft)
24.02.2017 16:12 5,4 C 80 % 1010,5 hPa 0,0 l/m 18,9 km/h (3 Bft) NW 321 3 min 144 W/m 2,2 C -2,2 C 32,2 km/h (5 Bft)
24.02.2017 16:15 4,7 C 81 % 1010,5 hPa 0,0 l/m 16,8 km/h (3 Bft) NW 319 0 min 97 W/m 1,7 C -2,2 C 33,8 km/h (5 Bft)
24.02.2017 16:18 4,3 C 84 % 1010,4 hPa 0,0 l/m 11,2 km/h (2 Bft) NW 322 3 min 144 W/m 1,8 C 0,5 C 17,7 km/h (3 Bft)
24.02.2017 16:21 4,3 C 86 % 1010,4 hPa 0,0 l/m 8,1 km/h (2 Bft) NW 309 3 min 171 W/m 2,2 C 2,8 C 14,5 km/h (3 Bft)
24.02.2017 16:24 4,4 C 87 % 1010,5 hPa 0,0 l/m 6,5 km/h (2 Bft) W 276 3 min 111 W/m 2,4 C 4,3 C 16,1 km/h (3 Bft)
24.02.2017 16:27 4,6 C 88 % 1010,5 hPa 0,0 l/m 6,1 km/h (2 Bft) W-SW 254 3 min 109 W/m 2,8 C 4,6 C 16,1 km/h (3 Bft)
24.02.2017 16:30 4,8 C 90 % 1010,5 hPa 0,0 l/m 10,5 km/h (2 Bft) W-NW 296 0 min 44 W/m 3,3 C 1,5 C 20,9 km/h (4 Bft)
24.02.2017 16:33 4,9 C 90 % 1010,5 hPa 0,0 l/m 12,0 km/h (2 Bft) SW 231 0 min 35 W/m 3,4 C 0,6 C 27,4 km/h (5 Bft)
24.02.2017 16:36 5,0 C 90 % 1010,5 hPa 0,0 l/m 15,9 km/h (3 Bft) W 273 0 min 16 W/m 3,5 C -1,4 C 25,7 km/h (4 Bft)
24.02.2017 16:39 5,0 C 91 % 1010,6 hPa 0,0 l/m 11,9 km/h (2 Bft) W-SW 257 0 min 25 W/m 3,7 C 0,8 C 20,9 km/h (4 Bft)
24.02.2017 16:42 4,9 C 91 % 1010,7 hPa 0,0 l/m 12,1 km/h (2 Bft) N-NW 331 0 min 44 W/m 3,6 C 0,6 C 22,5 km/h (4 Bft)
24.02.2017 16:45 4,8 C 90 % 1010,9 hPa 0,0 l/m 12,3 km/h (2 Bft) NW 322 0 min 30 W/m 3,3 C 0,3 C 24,1 km/h (4 Bft)
24.02.2017 16:48 4,6 C 88 % 1010,9 hPa 0,0 l/m 13,8 km/h (3 Bft) N-NW 336 0 min 32 W/m 2,8 C -0,8 C 27,4 km/h (5 Bft)
24.02.2017 16:51 4,4 C 85 % 1011,0 hPa 0,0 l/m 14,2 km/h (3 Bft) W 265 0 min 51 W/m 2,1 C -1,2 C 25,7 km/h (4 Bft)
24.02.2017 16:54 4,4 C 84 % 1011,0 hPa 0,0 l/m 12,7 km/h (3 Bft) W-SW 255 0 min 63 W/m 1,9 C -0,4 C 20,9 km/h (4 Bft)
24.02.2017 16:57 4,4 C 85 % 1011,1 hPa 0,0 l/m 13,4 km/h (3 Bft) W-NW 292 0 min 58 W/m 2,1 C -0,8 C 29,0 km/h (5 Bft)
24.02.2017 17:00 4,3 C 85 % 1011,1 hPa 0,0 l/m 17,0 km/h (3 Bft) N-NW 329 0 min 26 W/m 2,0 C -2,8 C 30,6 km/h (5 Bft)
24.02.2017 17:03 4,2 C 85 % 1011,1 hPa 0,0 l/m 10,2 km/h (2 Bft) NW 311 0 min 25 W/m 1,9 C 1,0 C 25,7 km/h (4 Bft)
24.02.2017 17:06 4,0 C 85 % 1011,1 hPa 0,0 l/m 11,2 km/h (2 Bft) N-NW 344 0 min 28 W/m 1,7 C 0,1 C 22,5 km/h (4 Bft)
24.02.2017 17:09 3,8 C 86 % 1011,1 hPa 0,0 l/m 10,6 km/h (2 Bft) W 271 0 min 30 W/m 1,7 C 0,3 C 22,5 km/h (4 Bft)
24.02.2017 17:12 3,7 C 86 % 1011,1 hPa 0,0 l/m 12,7 km/h (3 Bft) W-NW 286 0 min 28 W/m 1,6 C -1,2 C 27,4 km/h (5 Bft)
24.02.2017 17:15 3,6 C 86 % 1011,1 hPa 0,0 l/m 9,4 km/h (2 Bft) S-SW 204 0 min 23 W/m 1,5 C 1,0 C 16,1 km/h (3 Bft)
24.02.2017 17:18 3,5 C 86 % 1011,1 hPa 0,0 l/m 9,8 km/h (2 Bft) SW 221 0 min 19 W/m 1,4 C 0,6 C 16,1 km/h (3 Bft)
24.02.2017 17:21 3,4 C 87 % 1011,1 hPa 0,0 l/m 8,4 km/h (2 Bft) W-SW 258 0 min 18 W/m 1,4 C 1,6 C 17,7 km/h (3 Bft)
24.02.2017 17:24 3,3 C 87 % 1011,2 hPa 0,0 l/m 11,4 km/h (2 Bft) W-NW 294 0 min 16 W/m 1,3 C -0,8 C 19,3 km/h (3 Bft)
24.02.2017 17:27 3,3 C 87 % 1011,2 hPa 0,0 l/m 10,4 km/h (2 Bft) NW 321 0 min 14 W/m 1,3 C -0,1 C 19,3 km/h (3 Bft)
24.02.2017 17:30 3,3 C 87 % 1011,3 hPa 0,0 l/m 11,3 km/h (2 Bft) W-SW 252 0 min 12 W/m 1,3 C -0,7 C 19,3 km/h (3 Bft)
24.02.2017 17:33 3,3 C 87 % 1011,3 hPa 0,0 l/m 12,6 km/h (3 Bft) W-NW 298 0 min 11 W/m 1,3 C -1,6 C 19,3 km/h (3 Bft)
24.02.2017 17:36 3,3 C 87 % 1011,4 hPa 0,0 l/m 12,0 km/h (2 Bft) W-SW 246 0 min 7 W/m 1,3 C -1,2 C 20,9 km/h (4 Bft)
24.02.2017 17:39 3,3 C 88 % 1011,4 hPa 0,0 l/m 12,6 km/h (3 Bft) W-NW 288 0 min 5 W/m 1,5 C -1,6 C 22,5 km/h (4 Bft)
24.02.2017 17:42 3,3 C 88 % 1011,5 hPa 0,0 l/m 9,0 km/h (2 Bft) W 278 0 min 5 W/m 1,5 C 1,0 C 14,5 km/h (3 Bft)
24.02.2017 17:45 3,3 C 88 % 1011,5 hPa 0,0 l/m 10,0 km/h (2 Bft) W 273 0 min 5 W/m 1,5 C 0,2 C 19,3 km/h (3 Bft)
24.02.2017 17:48 3,3 C 88 % 1011,6 hPa 0,0 l/m 10,5 km/h (2 Bft) W-SW 252 0 min 0 W/m 1,5 C -0,2 C 17,7 km/h (3 Bft)
24.02.2017 17:51 3,2 C 88 % 1011,6 hPa 0,0 l/m 11,7 km/h (2 Bft) W-NW 284 0 min 0 W/m 1,4 C -1,1 C 19,3 km/h (3 Bft)
24.02.2017 17:54 3,3 C 89 % 1011,8 hPa 0,0 l/m 12,8 km/h (3 Bft) W-NW 286 0 min 0 W/m 1,7 C -1,7 C 22,5 km/h (4 Bft)
24.02.2017 17:57 3,3 C 89 % 1011,8 hPa 0,0 l/m 11,5 km/h (2 Bft) W 263 0 min 0 W/m 1,7 C -0,9 C 24,1 km/h (4 Bft)
24.02.2017 18:00 3,3 C 88 % 1011,9 hPa 0,0 l/m 13,8 km/h (3 Bft) W-NW 282 0 min 0 W/m 1,5 C -2,3 C 24,1 km/h (4 Bft)
24.02.2017 18:03 3,2 C 88 % 1011,9 hPa 0,0 l/m 15,4 km/h (3 Bft) W 269 0 min 0 W/m 1,4 C -3,3 C 24,1 km/h (4 Bft)
24.02.2017 18:06 3,1 C 88 % 1011,9 hPa 0,0 l/m 12,8 km/h (3 Bft) W 277 0 min 0 W/m 1,3 C -1,9 C 17,7 km/h (3 Bft)
24.02.2017 18:09 2,9 C 88 % 1011,9 hPa 0,0 l/m 11,7 km/h (2 Bft) W-SW 245 0 min 0 W/m 1,1 C -1,5 C 20,9 km/h (4 Bft)
24.02.2017 18:12 2,9 C 88 % 1011,9 hPa 0,0 l/m 13,6 km/h (3 Bft) W-SW 247 0 min 0 W/m 1,1 C -2,7 C 20,9 km/h (4 Bft)
24.02.2017 18:15 2,8 C 88 % 1012,0 hPa 0,0 l/m 11,7 km/h (2 Bft) W 260 0 min 0 W/m 1,0 C -1,6 C 17,7 km/h (3 Bft)
24.02.2017 18:18 2,9 C 88 % 1012,1 hPa 0,0 l/m 11,4 km/h (2 Bft) W 279 0 min 0 W/m 1,1 C -1,3 C 20,9 km/h (4 Bft)
24.02.2017 18:21 2,9 C 88 % 1012,1 hPa 0,0 l/m 9,0 km/h (2 Bft) W 271 0 min 0 W/m 1,1 C 0,5 C 25,7 km/h (4 Bft)
24.02.2017 18:24 3,1 C 88 % 1012,2 hPa 0,0 l/m 13,1 km/h (3 Bft) W 269 0 min 0 W/m 1,3 C -2,1 C 22,5 km/h (4 Bft)
24.02.2017 18:27 3,1 C 88 % 1012,3 hPa 0,0 l/m 11,1 km/h (2 Bft) W-NW 296 0 min 0 W/m 1,3 C -0,8 C 20,9 km/h (4 Bft)
24.02.2017 18:30 3,2 C 88 % 1012,3 hPa 0,0 l/m 11,1 km/h (2 Bft) W-NW 284 0 min 0 W/m 1,4 C -0,7 C 22,5 km/h (4 Bft)
24.02.2017 18:33 3,3 C 88 % 1012,4 hPa 0,0 l/m 11,7 km/h (2 Bft) W 277 0 min 0 W/m 1,5 C -1,0 C 19,3 km/h (3 Bft)
24.02.2017 18:36 3,3 C 89 % 1012,4 hPa 0,0 l/m 9,8 km/h (2 Bft) W-SW 252 0 min 0 W/m 1,7 C 0,3 C 17,7 km/h (3 Bft)
24.02.2017 18:39 3,3 C 89 % 1012,4 hPa 0,0 l/m 7,9 km/h (2 Bft) W-SW 254 0 min 0 W/m 1,7 C 1,9 C 19,3 km/h (3 Bft)
24.02.2017 18:42 3,4 C 89 % 1012,4 hPa 0,0 l/m 7,8 km/h (2 Bft) NW 321 0 min 0 W/m 1,8 C 2,1 C 17,7 km/h (3 Bft)
24.02.2017 18:45 3,4 C 89 % 1012,5 hPa 0,0 l/m 10,0 km/h (2 Bft) W 278 0 min 0 W/m 1,8 C 0,3 C 19,3 km/h (3 Bft)
24.02.2017 18:48 3,4 C 90 % 1012,6 hPa 0,0 l/m 8,4 km/h (2 Bft) W 272 0 min 0 W/m 1,9 C 1,6 C 19,3 km/h (3 Bft)
24.02.2017 18:51 3,4 C 90 % 1012,6 hPa 0,0 l/m 8,6 km/h (2 Bft) W-NW 285 0 min 0 W/m 1,9 C 1,4 C 16,1 km/h (3 Bft)
24.02.2017 18:54 3,5 C 90 % 1012,7 hPa 0,0 l/m 10,9 km/h (2 Bft) W 268 0 min 0 W/m 2,0 C -0,2 C 22,5 km/h (4 Bft)
24.02.2017 18:57 3,5 C 90 % 1012,7 hPa 0,0 l/m 9,4 km/h (2 Bft) W 269 0 min 0 W/m 2,0 C 0,9 C 17,7 km/h (3 Bft)
24.02.2017 19:00 3,5 C 90 % 1012,7 hPa 0,0 l/m 9,6 km/h (2 Bft) W 278 0 min 0 W/m 2,0 C 0,7 C 16,1 km/h (3 Bft)
24.02.2017 19:03 3,5 C 90 % 1012,7 hPa 0,0 l/m 9,3 km/h (2 Bft) W-NW 302 0 min 0 W/m 2,0 C 1,0 C 17,7 km/h (3 Bft)
24.02.2017 19:06 3,5 C 89 % 1012,8 hPa 0,0 l/m 10,0 km/h (2 Bft) NW 304 0 min 0 W/m 1,9 C 0,4 C 19,3 km/h (3 Bft)
24.02.2017 19:09 3,5 C 89 % 1012,9 hPa 0,0 l/m 10,8 km/h (2 Bft) W-NW 290 0 min 0 W/m 1,9 C -0,2 C 17,7 km/h (3 Bft)
24.02.2017 19:12 3,5 C 89 % 1012,9 hPa 0,0 l/m 7,6 km/h (2 Bft) W 262 0 min 0 W/m 1,9 C 2,4 C 17,7 km/h (3 Bft)
24.02.2017 19:15 3,5 C 89 % 1013,0 hPa 0,0 l/m 9,2 km/h (2 Bft) W-NW 292 0 min 0 W/m 1,9 C 1,0 C 20,9 km/h (4 Bft)
24.02.2017 19:18 3,6 C 89 % 1013,0 hPa 0,0 l/m 10,0 km/h (2 Bft) W 269 0 min 0 W/m 2,0 C 0,5 C 22,5 km/h (4 Bft)
24.02.2017 19:21 3,6 C 89 % 1013,0 hPa 0,0 l/m 11,9 km/h (2 Bft) W-NW 294 0 min 0 W/m 2,0 C -0,8 C 22,5 km/h (4 Bft)
24.02.2017 19:24 3,5 C 88 % 1013,1 hPa 0,0 l/m 9,6 km/h (2 Bft) W 259 0 min 0 W/m 1,7 C 0,7 C 17,7 km/h (3 Bft)
24.02.2017 19:27 3,5 C 88 % 1013,1 hPa 0,0 l/m 9,2 km/h (2 Bft) W 267 0 min 0 W/m 1,7 C 1,0 C 20,9 km/h (4 Bft)
24.02.2017 19:30 3,5 C 88 % 1013,1 hPa 0,0 l/m 10,4 km/h (2 Bft) W-NW 294 0 min 0 W/m 1,7 C 0,1 C 19,3 km/h (3 Bft)
24.02.2017 19:33 3,5 C 88 % 1013,2 hPa 0,0 l/m 8,6 km/h (2 Bft) W 267 0 min 0 W/m 1,7 C 1,5 C 14,5 km/h (3 Bft)
24.02.2017 19:36 3,5 C 88 % 1013,2 hPa 0,0 l/m 6,4 km/h (2 Bft) SW 224 0 min 0 W/m 1,7 C 3,5 C 14,5 km/h (3 Bft)
24.02.2017 19:39 3,4 C 88 % 1013,2 hPa 0,0 l/m 8,1 km/h (2 Bft) W-NW 300 0 min 0 W/m 1,6 C 1,8 C 14,5 km/h (3 Bft)
24.02.2017 19:42 3,4 C 87 % 1013,2 hPa 0,0 l/m 9,5 km/h (2 Bft) W-SW 255 0 min 0 W/m 1,4 C 0,7 C 17,7 km/h (3 Bft)
24.02.2017 19:45 3,4 C 87 % 1013,3 hPa 0,0 l/m 9,0 km/h (2 Bft) W-NW 296 0 min 0 W/m 1,4 C 1,1 C 16,1 km/h (3 Bft)
24.02.2017 19:48 3,4 C 88 % 1013,3 hPa 0,0 l/m 8,8 km/h (2 Bft) W-NW 290 0 min 0 W/m 1,6 C 1,2 C 19,3 km/h (3 Bft)
24.02.2017 19:51 3,4 C 88 % 1013,3 hPa 0,0 l/m 9,6 km/h (2 Bft) W-NW 302 0 min 0 W/m 1,6 C 0,6 C 16,1 km/h (3 Bft)
24.02.2017 19:54 3,4 C 88 % 1013,3 hPa 0,0 l/m 10,9 km/h (2 Bft) W 271 0 min 0 W/m 1,6 C -0,3 C 19,3 km/h (3 Bft)
24.02.2017 19:57 3,4 C 88 % 1013,4 hPa 0,0 l/m 10,3 km/h (2 Bft) W 272 0 min 0 W/m 1,6 C 0,1 C 17,7 km/h (3 Bft)
24.02.2017 20:00 3,4 C 88 % 1013,4 hPa 0,0 l/m 10,0 km/h (2 Bft) W-SW 257 0 min 0 W/m 1,6 C 0,3 C 17,7 km/h (3 Bft)
24.02.2017 20:03 3,4 C 88 % 1013,4 hPa 0,0 l/m 11,6 km/h (2 Bft) W-NW 288 0 min 0 W/m 1,6 C -0,8 C 24,1 km/h (4 Bft)
24.02.2017 20:06 3,4 C 88 % 1013,4 hPa 0,0 l/m 11,4 km/h (2 Bft) W 260 0 min 0 W/m 1,6 C -0,7 C 20,9 km/h (4 Bft)
24.02.2017 20:09 3,4 C 88 % 1013,5 hPa 0,0 l/m 12,9 km/h (3 Bft) NW 308 0 min 0 W/m 1,6 C -1,7 C 20,9 km/h (4 Bft)
24.02.2017 20:12 3,4 C 88 % 1013,5 hPa 0,0 l/m 10,9 km/h (2 Bft) W 263 0 min 0 W/m 1,6 C -0,3 C 20,9 km/h (4 Bft)
24.02.2017 20:15 3,5 C 89 % 1013,5 hPa 0,0 l/m 11,5 km/h (2 Bft) N 5 0 min 0 W/m 1,9 C -0,6 C 19,3 km/h (3 Bft)
24.02.2017 20:18 3,5 C 89 % 1013,5 hPa 0,0 l/m 9,0 km/h (2 Bft) W 269 0 min 0 W/m 1,9 C 1,2 C 17,7 km/h (3 Bft)
24.02.2017 20:21 3,5 C 89 % 1013,5 hPa 0,0 l/m 9,6 km/h (2 Bft) W 261 0 min 0 W/m 1,9 C 0,7 C 19,3 km/h (3 Bft)
24.02.2017 20:24 3,5 C 89 % 1013,5 hPa 0,0 l/m 10,0 km/h (2 Bft) W 261 0 min 0 W/m 1,9 C 0,4 C 20,9 km/h (4 Bft)
24.02.2017 20:27 3,4 C 89 % 1013,4 hPa 0,0 l/m 9,1 km/h (2 Bft) W-NW 296 0 min 0 W/m 1,8 C 1,0 C 19,3 km/h (3 Bft)
24.02.2017 20:30 3,4 C 90 % 1013,5 hPa 0,0 l/m 9,0 km/h (2 Bft) W 267 0 min 0 W/m 1,9 C 1,1 C 16,1 km/h (3 Bft)
24.02.2017 20:33 3,4 C 90 % 1013,5 hPa 0,0 l/m 8,6 km/h (2 Bft) W-SW 251 0 min 0 W/m 1,9 C 1,4 C 16,1 km/h (3 Bft)
24.02.2017 20:36 3,4 C 90 % 1013,5 hPa 0,0 l/m 10,1 km/h (2 Bft) W-NW 282 0 min 0 W/m 1,9 C 0,2 C 19,3 km/h (3 Bft)
24.02.2017 20:39 3,4 C 90 % 1013,6 hPa 0,0 l/m 8,9 km/h (2 Bft) W-NW 285 0 min 0 W/m 1,9 C 1,2 C 14,5 km/h (3 Bft)
24.02.2017 20:42 3,4 C 90 % 1013,6 hPa 0,0 l/m 7,5 km/h (2 Bft) W-SW 241 0 min 0 W/m 1,9 C 2,4 C 14,5 km/h (3 Bft)
24.02.2017 20:45 3,4 C 90 % 1013,6 hPa 0,0 l/m 8,1 km/h (2 Bft) W-NW 284 0 min 0 W/m 1,9 C 1,8 C 16,1 km/h (3 Bft)
24.02.2017 20:48 3,4 C 89 % 1013,7 hPa 0,0 l/m 8,2 km/h (2 Bft) N-NW 328 0 min 0 W/m 1,8 C 1,7 C 14,5 km/h (3 Bft)
24.02.2017 20:51 3,4 C 89 % 1013,7 hPa 0,0 l/m 7,6 km/h (2 Bft) W 277 0 min 0 W/m 1,8 C 2,3 C 16,1 km/h (3 Bft)
24.02.2017 20:54 3,4 C 89 % 1013,7 hPa 0,0 l/m 7,4 km/h (2 Bft) W 265 0 min 0 W/m 1,8 C 2,5 C 14,5 km/h (3 Bft)
24.02.2017 20:57 3,5 C 88 % 1013,7 hPa 0,0 l/m 8,4 km/h (2 Bft) W 274 0 min 0 W/m 1,7 C 1,7 C 16,1 km/h (3 Bft)
24.02.2017 21:00 3,5 C 88 % 1013,8 hPa 0,0 l/m 7,7 km/h (2 Bft) W-NW 294 0 min 0 W/m 1,7 C 2,3 C 16,1 km/h (3 Bft)
24.02.2017 21:03 3,5 C 88 % 1013,9 hPa 0,0 l/m 7,0 km/h (2 Bft) W 270 0 min 0 W/m 1,7 C 2,9 C 14,5 km/h (3 Bft)
24.02.2017 21:06 3,5 C 88 % 1013,9 hPa 0,0 l/m 7,4 km/h (2 Bft) W 271 0 min 0 W/m 1,7 C 2,6 C 14,5 km/h (3 Bft)
24.02.2017 21:09 3,5 C 88 % 1013,9 hPa 0,0 l/m 10,7 km/h (2 Bft) W 281 0 min 0 W/m 1,7 C -0,1 C 17,7 km/h (3 Bft)
24.02.2017 21:12 3,5 C 88 % 1013,9 hPa 0,0 l/m 8,6 km/h (2 Bft) W 278 0 min 0 W/m 1,7 C 1,5 C 16,1 km/h (3 Bft)
24.02.2017 21:15 3,6 C 89 % 1014,0 hPa 0,0 l/m 8,5 km/h (2 Bft) W 275 0 min 0 W/m 2,0 C 1,7 C 16,1 km/h (3 Bft)
24.02.2017 21:18 3,6 C 89 % 1014,0 hPa 0,2 l/m 7,7 km/h (2 Bft) W-SW 253 0 min 0 W/m 2,0 C 2,4 C 16,1 km/h (3 Bft)
24.02.2017 21:21 3,6 C 89 % 1013,9 hPa 0,0 l/m 7,9 km/h (2 Bft) SW 230 0 min 0 W/m 2,0 C 2,2 C 12,9 km/h (3 Bft)
24.02.2017 21:24 3,6 C 90 % 1014,0 hPa 0,0 l/m 9,4 km/h (2 Bft) W-SW 237 0 min 0 W/m 2,1 C 1,0 C 22,5 km/h (4 Bft)
24.02.2017 21:27 3,6 C 90 % 1014,1 hPa 0,0 l/m 12,9 km/h (3 Bft) W 266 0 min 0 W/m 2,1 C -1,4 C 17,7 km/h (3 Bft)
24.02.2017 21:30 3,7 C 90 % 1014,0 hPa 0,0 l/m 10,4 km/h (2 Bft) W-NW 296 0 min 0 W/m 2,2 C 0,3 C 19,3 km/h (3 Bft)
24.02.2017 21:33 3,7 C 90 % 1014,0 hPa 0,0 l/m 8,7 km/h (2 Bft) W 271 0 min 0 W/m 2,2 C 1,6 C 12,9 km/h (3 Bft)
24.02.2017 21:36 3,7 C 90 % 1014,0 hPa 0,0 l/m 9,5 km/h (2 Bft) W 270 0 min 0 W/m 2,2 C 1,0 C 17,7 km/h (3 Bft)
24.02.2017 21:39 3,7 C 90 % 1014,1 hPa 0,0 l/m 12,9 km/h (3 Bft) W 264 0 min 0 W/m 2,2 C -1,3 C 22,5 km/h (4 Bft)
24.02.2017 21:42 3,7 C 90 % 1014,1 hPa 0,0 l/m 12,2 km/h (2 Bft) W-NW 296 0 min 0 W/m 2,2 C -0,9 C 19,3 km/h (3 Bft)
24.02.2017 21:45 3,7 C 90 % 1014,1 hPa 0,0 l/m 10,7 km/h (2 Bft) W 259 0 min 0 W/m 2,2 C 0,1 C 19,3 km/h (3 Bft)
24.02.2017 21:48 3,7 C 90 % 1014,1 hPa 0,0 l/m 10,3 km/h (2 Bft) W 279 0 min 0 W/m 2,2 C 0,4 C 17,7 km/h (3 Bft)
24.02.2017 21:51 3,7 C 90 % 1014,1 hPa 0,0 l/m 10,7 km/h (2 Bft) W 275 0 min 0 W/m 2,2 C 0,1 C 19,3 km/h (3 Bft)
24.02.2017 21:54 3,8 C 90 % 1014,2 hPa 0,0 l/m 11,0 km/h (2 Bft) W-NW 291 0 min 0 W/m 2,3 C 0,0 C 19,3 km/h (3 Bft)
24.02.2017 21:57 3,8 C 91 % 1014,2 hPa 0,0 l/m 12,2 km/h (2 Bft) W-SW 252 0 min 0 W/m 2,5 C -0,8 C 20,9 km/h (4 Bft)
24.02.2017 22:00 3,8 C 90 % 1014,3 hPa 0,0 l/m 11,3 km/h (2 Bft) W-SW 252 0 min 0 W/m 2,3 C -0,2 C 17,7 km/h (3 Bft)
24.02.2017 22:03 3,8 C 90 % 1014,3 hPa 0,0 l/m 10,6 km/h (2 Bft) W-NW 284 0 min 0 W/m 2,3 C 0,3 C 17,7 km/h (3 Bft)
24.02.2017 22:06 3,8 C 90 % 1014,3 hPa 0,0 l/m 12,1 km/h (2 Bft) W 275 0 min 0 W/m 2,3 C -0,7 C 22,5 km/h (4 Bft)
24.02.2017 22:09 3,7 C 90 % 1014,4 hPa 0,0 l/m 9,7 km/h (2 Bft) W 273 0 min 0 W/m 2,2 C 0,9 C 17,7 km/h (3 Bft)
24.02.2017 22:12 3,7 C 89 % 1014,4 hPa 0,0 l/m 10,4 km/h (2 Bft) W-SW 241 0 min 0 W/m 2,1 C 0,3 C 16,1 km/h (3 Bft)
24.02.2017 22:15 3,7 C 89 % 1014,4 hPa 0,0 l/m 11,9 km/h (2 Bft) W 276 0 min 0 W/m 2,1 C -0,7 C 17,7 km/h (3 Bft)
24.02.2017 22:18 3,7 C 89 % 1014,5 hPa 0,0 l/m 11,8 km/h (2 Bft) W 279 0 min 0 W/m 2,1 C -0,6 C 20,9 km/h (4 Bft)
24.02.2017 22:21 3,7 C 89 % 1014,5 hPa 0,0 l/m 10,1 km/h (2 Bft) N-NW 329 0 min 0 W/m 2,1 C 0,6 C 17,7 km/h (3 Bft)
24.02.2017 22:24 3,7 C 88 % 1014,5 hPa 0,0 l/m 9,9 km/h (2 Bft) W 274 0 min 0 W/m 1,9 C 0,7 C 19,3 km/h (3 Bft)
24.02.2017 22:27 3,7 C 88 % 1014,5 hPa 0,0 l/m 10,1 km/h (2 Bft) W 273 0 min 0 W/m 1,9 C 0,6 C 17,7 km/h (3 Bft)
24.02.2017 22:30 3,7 C 88 % 1014,5 hPa 0,0 l/m 10,0 km/h (2 Bft) W-SW 253 0 min 0 W/m 1,9 C 0,6 C 16,1 km/h (3 Bft)
24.02.2017 22:33 3,7 C 88 % 1014,5 hPa 0,0 l/m 10,8 km/h (2 Bft) W-SW 237 0 min 0 W/m 1,9 C 0,1 C 17,7 km/h (3 Bft)
24.02.2017 22:36 3,7 C 89 % 1014,6 hPa 0,0 l/m 10,7 km/h (2 Bft) W 262 0 min 0 W/m 2,1 C 0,1 C 17,7 km/h (3 Bft)
24.02.2017 22:39 3,7 C 89 % 1014,6 hPa 0,0 l/m 12,9 km/h (3 Bft) W-SW 258 0 min 0 W/m 2,1 C -1,3 C 20,9 km/h (4 Bft)
24.02.2017 22:42 3,8 C 89 % 1014,6 hPa 0,0 l/m 9,3 km/h (2 Bft) W-SW 242 0 min 0 W/m 2,2 C 1,3 C 17,7 km/h (3 Bft)
24.02.2017 22:45 3,7 C 89 % 1014,6 hPa 0,0 l/m 10,6 km/h (2 Bft) W-NW 296 0 min 0 W/m 2,1 C 0,2 C 19,3 km/h (3 Bft)
24.02.2017 22:48 3,7 C 89 % 1014,6 hPa 0,0 l/m 11,6 km/h (2 Bft) W 261 0 min 0 W/m 2,1 C -0,5 C 19,3 km/h (3 Bft)
24.02.2017 22:51 3,7 C 89 % 1014,6 hPa 0,0 l/m 13,6 km/h (3 Bft) W 265 0 min 0 W/m 2,1 C -1,7 C 20,9 km/h (4 Bft)
24.02.2017 22:54 3,7 C 89 % 1014,6 hPa 0,0 l/m 10,9 km/h (2 Bft) W 273 0 min 0 W/m 2,1 C -0,0 C 17,7 km/h (3 Bft)
24.02.2017 22:57 3,7 C 89 % 1014,6 hPa 0,0 l/m 8,9 km/h (2 Bft) W-NW 298 0 min 0 W/m 2,1 C 1,5 C 19,3 km/h (3 Bft)
24.02.2017 23:00 3,7 C 89 % 1014,7 hPa 0,0 l/m 11,8 km/h (2 Bft) W 272 0 min 0 W/m 2,1 C -0,6 C 20,9 km/h (4 Bft)
24.02.2017 23:03 3,8 C 89 % 1014,7 hPa 0,0 l/m 13,0 km/h (3 Bft) W-SW 248 0 min 0 W/m 2,2 C -1,2 C 22,5 km/h (4 Bft)
24.02.2017 23:06 3,8 C 89 % 1014,7 hPa 0,0 l/m 15,0 km/h (3 Bft) W-NW 286 0 min 0 W/m 2,2 C -2,4 C 24,1 km/h (4 Bft)
24.02.2017 23:09 3,8 C 89 % 1014,7 hPa 0,0 l/m 12,9 km/h (3 Bft) W-SW 257 0 min 0 W/m 2,2 C -1,2 C 19,3 km/h (3 Bft)
24.02.2017 23:12 3,8 C 89 % 1014,7 hPa 0,0 l/m 11,3 km/h (2 Bft) W 259 0 min 0 W/m 2,2 C -0,2 C 19,3 km/h (3 Bft)
24.02.2017 23:15 3,8 C 89 % 1014,7 hPa 0,0 l/m 12,3 km/h (2 Bft) W 261 0 min 0 W/m 2,2 C -0,8 C 19,3 km/h (3 Bft)
24.02.2017 23:18 3,8 C 89 % 1014,7 hPa 0,0 l/m 13,7 km/h (3 Bft) W-SW 248 0 min 0 W/m 2,2 C -1,7 C 25,7 km/h (4 Bft)
24.02.2017 23:21 3,7 C 89 % 1014,7 hPa 0,0 l/m 11,1 km/h (2 Bft) W-SW 251 0 min 0 W/m 2,1 C -0,1 C 22,5 km/h (4 Bft)
24.02.2017 23:24 3,7 C 89 % 1014,8 hPa 0,0 l/m 12,8 km/h (3 Bft) W 266 0 min 0 W/m 2,1 C -1,2 C 22,5 km/h (4 Bft)
24.02.2017 23:27 3,7 C 89 % 1014,8 hPa 0,0 l/m 12,2 km/h (2 Bft) NW 309 0 min 0 W/m 2,1 C -0,9 C 19,3 km/h (3 Bft)
24.02.2017 23:30 3,7 C 89 % 1014,8 hPa 0,0 l/m 11,3 km/h (2 Bft) W-SW 246 0 min 0 W/m 2,1 C -0,3 C 20,9 km/h (4 Bft)
24.02.2017 23:33 3,7 C 89 % 1014,9 hPa 0,0 l/m 12,0 km/h (2 Bft) W 261 0 min 0 W/m 2,1 C -0,7 C 22,5 km/h (4 Bft)
24.02.2017 23:36 3,7 C 89 % 1014,9 hPa 0,0 l/m 14,4 km/h (3 Bft) W-NW 288 0 min 0 W/m 2,1 C -2,2 C 24,1 km/h (4 Bft)
24.02.2017 23:39 3,7 C 89 % 1014,9 hPa 0,0 l/m 13,8 km/h (3 Bft) NW 304 0 min 0 W/m 2,1 C -1,8 C 19,3 km/h (3 Bft)
24.02.2017 23:42 3,8 C 89 % 1014,9 hPa 0,0 l/m 11,6 km/h (2 Bft) W-SW 255 0 min 0 W/m 2,2 C -0,4 C 24,1 km/h (4 Bft)
24.02.2017 23:45 3,8 C 89 % 1015,0 hPa 0,0 l/m 11,1 km/h (2 Bft) NW 309 0 min 0 W/m 2,2 C -0,0 C 22,5 km/h (4 Bft)
24.02.2017 23:48 3,8 C 89 % 1015,0 hPa 0,0 l/m 10,4 km/h (2 Bft) W 275 0 min 0 W/m 2,2 C 0,5 C 22,5 km/h (4 Bft)
24.02.2017 23:51 3,8 C 89 % 1015,1 hPa 0,0 l/m 11,5 km/h (2 Bft) W 265 0 min 0 W/m 2,2 C -0,3 C 19,3 km/h (3 Bft)
24.02.2017 23:54 3,8 C 89 % 1015,1 hPa 0,0 l/m 10,3 km/h (2 Bft) W-SW 246 0 min 0 W/m 2,2 C 0,5 C 17,7 km/h (3 Bft)
24.02.2017 23:57 3,8 C 89 % 1015,1 hPa 0,0 l/m 7,7 km/h (2 Bft) W-SW 244 0 min 0 W/m 2,2 C 2,6 C 17,7 km/h (3 Bft)
_ Min-Zeit 07:48 11:57 00:00 - 11:06 - - - - 09:09 01:27 11:06
Minimum _ 2,5 C 75 % 981,2 hPa - 5,5 km/h (2 Bft) - - - - 0,0 C -10,2 C 12,9 km/h (3 Bft)
_ Max-Zeit 14:06 00:00 23:51 01:45 01:27 - - 11:00 13:45 00:00 12:03 01:45
Maximum _ 7,4 C 97 % 1015,1 hPa 0,2 l/m 32,9 km/h
NW (5 Bft)
- - 3 min 462 W/m 4,8 C 6,4 C 53,1 km/h
NW (7 Bft)
Durchschnitt _ 4,2 C 87 % 1004,0 hPa #0,4 l/m 14,6 km/h (3 Bft) W - #4:39 h 187 W/m 2,2 C -1,2 C 25,5 km/h (4 Bft)
2017 Cux-Wetter.de -Die Nutzung der Wetterdaten nur mit ausdrcklicher Genehmigung